Temperatura ambiente en Pisuerga en Salinas de Pisuerga

 
Fecha y horaTemperatura ambiente (ºC)
01/10/2020 00:008,90
01/10/2020 01:0012,90
01/10/2020 02:0012,55
01/10/2020 03:0010,00
01/10/2020 04:009,25
01/10/2020 05:008,35
01/10/2020 06:007,65
01/10/2020 07:006,55
01/10/2020 08:006,25
01/10/2020 09:007,65
01/10/2020 10:0010,20
01/10/2020 11:0011,25
01/10/2020 12:0012,50
01/10/2020 13:0014,80
01/10/2020 14:0016,90
01/10/2020 15:0017,60
01/10/2020 16:0016,40
01/10/2020 17:0015,20
01/10/2020 18:0014,75
01/10/2020 19:0014,10
01/10/2020 20:0013,15
01/10/2020 21:0012,70
01/10/2020 22:0012,20
01/10/2020 23:0010,80
02/10/2020 00:009,50
02/10/2020 01:009,60
02/10/2020 02:009,60
02/10/2020 03:009,65
02/10/2020 04:0010,05
02/10/2020 05:0010,65
02/10/2020 06:009,20
02/10/2020 07:008,60
02/10/2020 08:007,45
02/10/2020 09:006,80
02/10/2020 10:008,00
02/10/2020 11:007,20
02/10/2020 12:008,50
02/10/2020 13:009,15
02/10/2020 14:009,05
02/10/2020 15:0010,30
02/10/2020 16:009,75
02/10/2020 17:009,05
02/10/2020 18:008,85
02/10/2020 19:006,95
02/10/2020 20:006,40
02/10/2020 21:006,50
02/10/2020 22:006,20
02/10/2020 23:005,30
03/10/2020 00:005,25
03/10/2020 01:004,60
03/10/2020 02:004,85
03/10/2020 03:004,65
03/10/2020 04:004,70
03/10/2020 05:004,35
03/10/2020 06:003,80
03/10/2020 07:002,80
03/10/2020 08:002,50
03/10/2020 09:005,55
03/10/2020 10:009,70
03/10/2020 11:0011,75
03/10/2020 12:0012,90
03/10/2020 13:0012,80
03/10/2020 14:0013,60
03/10/2020 15:0012,85
03/10/2020 16:0011,75
03/10/2020 17:0011,75
03/10/2020 18:0011,70
03/10/2020 19:009,50
03/10/2020 20:008,15
03/10/2020 21:008,15
03/10/2020 22:008,00
03/10/2020 23:007,55
04/10/2020 00:007,70
04/10/2020 01:007,35
04/10/2020 02:007,20
04/10/2020 03:007,10
04/10/2020 04:006,90
04/10/2020 05:006,90
04/10/2020 06:006,60
04/10/2020 07:006,75
04/10/2020 08:007,30
04/10/2020 09:008,35
04/10/2020 10:0010,85
04/10/2020 11:0012,00
04/10/2020 12:0013,10
04/10/2020 13:0013,10
04/10/2020 14:0013,30
04/10/2020 15:0013,30
04/10/2020 16:0012,05
04/10/2020 17:0011,45
04/10/2020 18:0010,80
04/10/2020 19:009,10
04/10/2020 20:008,90
04/10/2020 21:008,55
04/10/2020 22:008,25
04/10/2020 23:006,85
05/10/2020 00:005,70
05/10/2020 01:005,55
05/10/2020 02:005,05
05/10/2020 03:005,85
05/10/2020 04:006,05
05/10/2020 05:005,70
05/10/2020 06:006,20
05/10/2020 07:005,10
05/10/2020 08:004,80
05/10/2020 09:006,75
05/10/2020 10:008,90
05/10/2020 11:0011,00
05/10/2020 12:0011,65
05/10/2020 13:0012,70
05/10/2020 14:0014,25
05/10/2020 15:0014,90
05/10/2020 16:0015,60
05/10/2020 17:0015,75
05/10/2020 18:0015,05
05/10/2020 19:0014,75
05/10/2020 20:0013,75
05/10/2020 21:0013,45
05/10/2020 22:0012,00
05/10/2020 23:009,30
06/10/2020 00:008,00
06/10/2020 01:007,50
06/10/2020 02:007,20
06/10/2020 03:006,40
06/10/2020 04:006,45
06/10/2020 05:008,10
06/10/2020 06:008,35
06/10/2020 07:007,65
06/10/2020 08:007,55
06/10/2020 09:009,95
06/10/2020 10:0012,50
06/10/2020 11:0014,85
06/10/2020 12:0017,25
06/10/2020 13:0018,05
06/10/2020 14:0018,65
06/10/2020 15:0020,20
06/10/2020 16:0020,75
06/10/2020 17:0019,55
06/10/2020 18:0019,35
06/10/2020 19:0018,05
06/10/2020 20:0015,55
06/10/2020 21:0012,25
06/10/2020 22:0011,05
06/10/2020 23:009,75
07/10/2020 00:009,00
07/10/2020 01:008,20
07/10/2020 02:007,65
07/10/2020 03:007,20
07/10/2020 04:006,80
07/10/2020 05:006,55
07/10/2020 06:006,80
07/10/2020 07:006,55
07/10/2020 08:006,15
07/10/2020 09:007,95
07/10/2020 10:0011,90
07/10/2020 11:0016,05
07/10/2020 12:0017,50
07/10/2020 13:0019,00
07/10/2020 14:0019,75
07/10/2020 15:0020,70
07/10/2020 16:0020,95
07/10/2020 17:0020,80
07/10/2020 18:0019,00
07/10/2020 19:0016,00
07/10/2020 20:0013,20
07/10/2020 21:0011,20
07/10/2020 22:009,45
07/10/2020 23:009,60
08/10/2020 00:0010,50
08/10/2020 01:0011,05
08/10/2020 02:0011,50
08/10/2020 03:0011,95
08/10/2020 04:0011,85
08/10/2020 05:0011,10
08/10/2020 06:0010,10
08/10/2020 07:009,30
08/10/2020 08:008,25
08/10/2020 09:008,85
08/10/2020 10:0012,55
08/10/2020 11:0017,25
08/10/2020 12:0018,55
08/10/2020 13:0019,75
08/10/2020 14:0020,40
08/10/2020 15:0020,65
08/10/2020 16:0020,95
08/10/2020 17:0021,35
08/10/2020 18:0020,05
08/10/2020 19:0018,00
08/10/2020 20:0013,85
08/10/2020 21:0011,65
08/10/2020 22:0010,50
08/10/2020 23:009,40
09/10/2020 00:008,80
09/10/2020 01:008,60
09/10/2020 02:008,25
09/10/2020 03:007,05
09/10/2020 04:006,55
09/10/2020 05:006,05
09/10/2020 06:005,70
09/10/2020 07:005,05
09/10/2020 08:004,60
09/10/2020 09:007,55
09/10/2020 10:0012,35
09/10/2020 11:0013,40
09/10/2020 12:0016,00
09/10/2020 13:0017,00
09/10/2020 14:0018,35
09/10/2020 15:0018,40
09/10/2020 16:0017,95
09/10/2020 17:0016,75
09/10/2020 18:0016,00
09/10/2020 19:0014,20
09/10/2020 20:0013,25
09/10/2020 21:0012,30
09/10/2020 22:0010,40
09/10/2020 23:009,10
10/10/2020 00:007,60
10/10/2020 01:006,75
10/10/2020 02:006,15
10/10/2020 03:005,90
10/10/2020 05:007,05
10/10/2020 07:005,30
10/10/2020 09:005,30
10/10/2020 11:0012,05
10/10/2020 12:0013,25
10/10/2020 13:0014,00
10/10/2020 14:0014,70
10/10/2020 15:0014,80
10/10/2020 16:0013,10
10/10/2020 17:0012,50
10/10/2020 18:0011,70
10/10/2020 19:0010,30
10/10/2020 20:008,90
10/10/2020 21:008,65
10/10/2020 22:008,20
10/10/2020 23:007,05
11/10/2020 00:006,35
11/10/2020 01:005,60
11/10/2020 02:005,25
11/10/2020 03:003,65
11/10/2020 04:003,45
11/10/2020 05:004,35
11/10/2020 06:006,25
11/10/2020 07:006,05
11/10/2020 08:006,15
11/10/2020 09:007,05
11/10/2020 10:007,85
11/10/2020 11:008,60
11/10/2020 12:009,30
11/10/2020 13:0011,10
11/10/2020 14:0011,90
11/10/2020 15:0011,85
11/10/2020 16:0010,70
11/10/2020 17:0010,35
11/10/2020 18:009,80
11/10/2020 19:008,85
11/10/2020 20:007,90
11/10/2020 21:007,35
11/10/2020 22:007,30
11/10/2020 23:007,40
12/10/2020 00:007,15
12/10/2020 01:007,05
12/10/2020 02:006,05
12/10/2020 03:006,55
12/10/2020 04:006,70
12/10/2020 05:006,90
12/10/2020 06:006,55
12/10/2020 07:006,15
12/10/2020 08:004,00
12/10/2020 09:005,55
12/10/2020 10:008,30
12/10/2020 11:0010,75
12/10/2020 12:0011,50
12/10/2020 13:0013,30
12/10/2020 14:0015,60
12/10/2020 15:0016,80
12/10/2020 16:0016,10
12/10/2020 17:0014,85
12/10/2020 18:0014,40
12/10/2020 19:0013,40
12/10/2020 20:0012,00
12/10/2020 21:0010,55
12/10/2020 22:008,90
12/10/2020 23:008,30
13/10/2020 00:008,80
13/10/2020 01:009,30
13/10/2020 02:009,30
13/10/2020 03:009,60
13/10/2020 04:009,60
13/10/2020 05:009,00
13/10/2020 06:008,90
13/10/2020 07:007,80
13/10/2020 08:007,20
13/10/2020 09:008,10
13/10/2020 10:0010,15
13/10/2020 11:0012,85
13/10/2020 12:0014,65
13/10/2020 13:0015,25
13/10/2020 14:0014,15
13/10/2020 15:0014,20
13/10/2020 16:0013,30
13/10/2020 17:0012,60
13/10/2020 18:0011,90
13/10/2020 19:0010,45
13/10/2020 20:008,95
13/10/2020 21:007,90
13/10/2020 22:007,35
13/10/2020 23:006,15
14/10/2020 00:004,55
14/10/2020 01:003,60
14/10/2020 02:002,90
14/10/2020 03:003,50
14/10/2020 04:003,90
14/10/2020 05:004,45
14/10/2020 06:004,40
14/10/2020 07:004,50
14/10/2020 08:004,90
14/10/2020 09:005,05
14/10/2020 10:007,55
14/10/2020 11:008,50
14/10/2020 12:008,95
14/10/2020 13:0010,80
14/10/2020 14:0011,00
14/10/2020 15:0010,00
14/10/2020 16:009,85
14/10/2020 17:009,35
14/10/2020 18:007,65
14/10/2020 19:007,00
14/10/2020 20:006,25
14/10/2020 21:005,85
14/10/2020 22:005,35
14/10/2020 23:004,75
15/10/2020 00:004,65
15/10/2020 01:005,05
15/10/2020 02:004,00
15/10/2020 03:002,55
15/10/2020 04:002,00
15/10/2020 05:001,90
15/10/2020 06:002,40
15/10/2020 07:002,30
15/10/2020 08:002,25
15/10/2020 09:003,90
15/10/2020 10:005,85
15/10/2020 11:006,20
15/10/2020 12:007,50
15/10/2020 13:008,30
15/10/2020 14:008,60
15/10/2020 15:009,80
15/10/2020 16:008,40
15/10/2020 17:007,00
15/10/2020 18:007,20
15/10/2020 19:005,35
15/10/2020 20:003,00
15/10/2020 21:002,60
15/10/2020 22:003,20
15/10/2020 23:003,95
16/10/2020 00:002,05
16/10/2020 01:000,65
16/10/2020 02:001,20
16/10/2020 03:001,40
16/10/2020 04:000,00
16/10/2020 05:00-0,30
16/10/2020 06:001,15
16/10/2020 07:001,20
16/10/2020 08:001,20
16/10/2020 09:002,00
16/10/2020 10:005,60
16/10/2020 11:008,05
16/10/2020 12:008,10
16/10/2020 13:008,90
16/10/2020 14:009,20
16/10/2020 15:0011,50
16/10/2020 16:0011,45
16/10/2020 17:0012,20
16/10/2020 18:0011,65
16/10/2020 19:009,30
16/10/2020 20:006,15
16/10/2020 21:004,25
16/10/2020 22:002,00
16/10/2020 23:000,65
17/10/2020 00:00-0,10
17/10/2020 01:00-0,30
17/10/2020 02:00-0,55
17/10/2020 03:00-0,45
17/10/2020 04:00-0,55
17/10/2020 05:00-0,30
17/10/2020 06:000,50
17/10/2020 07:000,25
17/10/2020 08:00-0,70
17/10/2020 09:001,10
17/10/2020 10:003,40
17/10/2020 11:007,40
17/10/2020 12:0011,90
17/10/2020 13:0014,00
17/10/2020 14:0014,90
17/10/2020 15:0015,65
17/10/2020 16:0015,80
17/10/2020 17:0015,85
17/10/2020 18:0015,05
17/10/2020 19:0011,00
17/10/2020 20:006,95
17/10/2020 21:004,90
17/10/2020 22:003,70
17/10/2020 23:003,15
18/10/2020 00:002,60
18/10/2020 01:002,50
18/10/2020 02:001,70
18/10/2020 03:002,10
18/10/2020 04:001,70
18/10/2020 05:001,40
18/10/2020 06:001,35
18/10/2020 07:001,60
18/10/2020 08:001,75
18/10/2020 09:003,40
18/10/2020 10:006,80
18/10/2020 11:0013,20
18/10/2020 12:0016,15
18/10/2020 13:0017,40
18/10/2020 14:0017,20
18/10/2020 15:0018,25
18/10/2020 16:0018,60
18/10/2020 17:0018,80
18/10/2020 18:0017,80
18/10/2020 19:0012,60
18/10/2020 20:008,75
18/10/2020 21:006,65
18/10/2020 22:005,35
18/10/2020 23:004,70
19/10/2020 00:004,95
19/10/2020 01:004,10
19/10/2020 02:003,55
19/10/2020 03:003,25
19/10/2020 04:002,80
19/10/2020 05:002,70
19/10/2020 06:002,30
19/10/2020 07:001,95
19/10/2020 08:001,50
19/10/2020 09:003,20
19/10/2020 10:007,90
19/10/2020 11:0013,30
19/10/2020 12:0015,40
19/10/2020 13:0018,05
19/10/2020 14:0019,35
19/10/2020 15:0020,90
19/10/2020 16:0020,95
19/10/2020 17:0020,95
19/10/2020 18:0020,25
19/10/2020 19:0018,30
19/10/2020 20:0015,20
19/10/2020 21:0013,50
19/10/2020 22:0012,85
19/10/2020 23:0011,10
20/10/2020 00:0010,50
20/10/2020 01:0010,70
20/10/2020 02:0010,90
20/10/2020 03:0010,50
20/10/2020 04:0010,40
20/10/2020 05:0010,30
20/10/2020 06:0010,40
20/10/2020 07:0010,50
20/10/2020 08:0010,30
20/10/2020 09:0010,30
20/10/2020 10:0010,35
20/10/2020 11:0010,55
20/10/2020 12:0011,10
20/10/2020 13:0011,35
20/10/2020 14:0011,50
20/10/2020 15:0011,60
20/10/2020 16:0011,90
20/10/2020 17:0011,30
20/10/2020 18:0011,05
20/10/2020 19:0011,20
20/10/2020 20:0011,90
20/10/2020 21:0011,90
20/10/2020 22:0011,80
20/10/2020 23:0012,20
21/10/2020 00:0012,10
21/10/2020 01:0012,10
21/10/2020 02:0011,00
21/10/2020 03:0011,15
21/10/2020 04:0010,90
21/10/2020 05:0010,60
21/10/2020 06:0010,40
21/10/2020 07:0010,30
21/10/2020 08:0010,35
21/10/2020 09:0010,30
21/10/2020 10:0010,85
21/10/2020 11:0011,25
21/10/2020 12:0011,50
21/10/2020 13:0010,80
21/10/2020 14:0011,30
21/10/2020 15:0012,10
21/10/2020 16:0010,80
21/10/2020 17:0011,75
21/10/2020 18:0011,30
21/10/2020 19:0010,85
21/10/2020 20:0011,30
21/10/2020 21:009,20
21/10/2020 22:008,80
21/10/2020 23:008,10
22/10/2020 00:009,35
22/10/2020 01:009,45
22/10/2020 02:009,55
22/10/2020 03:009,20
22/10/2020 04:009,30
22/10/2020 05:009,40
22/10/2020 06:009,50
22/10/2020 07:009,80
22/10/2020 08:009,60
22/10/2020 09:009,80
22/10/2020 10:009,90
22/10/2020 11:0010,60
22/10/2020 12:0011,85
22/10/2020 13:0012,20
22/10/2020 14:0013,00
22/10/2020 15:0013,70
22/10/2020 16:0011,95
22/10/2020 17:0012,10
22/10/2020 18:0012,10
22/10/2020 19:0010,55
22/10/2020 20:008,90
22/10/2020 21:008,90
22/10/2020 22:008,60
22/10/2020 23:009,25
23/10/2020 00:008,85
23/10/2020 01:009,10
23/10/2020 02:009,20
23/10/2020 03:008,40
23/10/2020 04:007,80
23/10/2020 05:008,25
23/10/2020 06:007,85
23/10/2020 07:007,25
23/10/2020 08:006,50
23/10/2020 09:006,70
23/10/2020 10:008,95
23/10/2020 11:009,55
23/10/2020 12:0010,95
23/10/2020 13:0011,80
23/10/2020 14:0012,00
23/10/2020 15:0011,40
23/10/2020 16:0011,85
23/10/2020 17:0011,50
23/10/2020 18:0010,95
23/10/2020 19:009,20
23/10/2020 20:006,85
23/10/2020 21:005,25
23/10/2020 22:004,10
23/10/2020 23:003,30
24/10/2020 00:002,75
24/10/2020 01:002,30
24/10/2020 02:001,85
24/10/2020 03:001,10
24/10/2020 04:000,95
24/10/2020 05:000,70
24/10/2020 06:000,70
24/10/2020 07:001,00
24/10/2020 08:000,90
24/10/2020 09:004,00
24/10/2020 10:005,55
24/10/2020 11:006,10
24/10/2020 12:006,75
24/10/2020 13:006,80
24/10/2020 14:007,20
24/10/2020 15:007,70
24/10/2020 16:008,75
24/10/2020 17:009,20
24/10/2020 18:009,95
24/10/2020 19:0010,35
24/10/2020 20:0010,10
24/10/2020 21:0010,20
24/10/2020 22:0010,35
24/10/2020 23:009,95
25/10/2020 00:009,85
25/10/2020 01:009,60
25/10/2020 02:009,50
25/10/2020 02:009,40
25/10/2020 03:009,55
25/10/2020 04:009,40
25/10/2020 05:009,20
25/10/2020 06:009,00
25/10/2020 07:009,10
25/10/2020 08:009,30
25/10/2020 09:009,60
25/10/2020 10:0010,00
25/10/2020 11:0010,10
25/10/2020 12:0010,35
25/10/2020 13:0011,15
25/10/2020 14:009,75
25/10/2020 15:009,40
25/10/2020 16:009,80
25/10/2020 17:009,05
25/10/2020 18:008,30
25/10/2020 19:006,95
25/10/2020 20:005,60
25/10/2020 21:005,05
25/10/2020 22:003,55
25/10/2020 23:002,25
26/10/2020 00:001,85
26/10/2020 01:000,85
26/10/2020 02:000,25
26/10/2020 03:00-0,50
26/10/2020 04:00-0,70
26/10/2020 05:00-0,80
26/10/2020 06:00-1,10
26/10/2020 07:00-1,40
26/10/2020 08:00-0,65
26/10/2020 09:001,00
26/10/2020 10:005,05
26/10/2020 11:007,45
26/10/2020 12:008,80
26/10/2020 13:009,55
26/10/2020 14:0010,55
26/10/2020 15:0010,35
26/10/2020 16:008,90
26/10/2020 17:008,10
26/10/2020 18:007,10
26/10/2020 19:007,30
26/10/2020 20:006,65
26/10/2020 21:005,00
26/10/2020 22:003,80
26/10/2020 23:003,45
27/10/2020 00:003,30
27/10/2020 01:003,55
27/10/2020 02:004,80
27/10/2020 03:005,35
27/10/2020 04:005,30
27/10/2020 05:005,30
27/10/2020 06:005,70
27/10/2020 07:005,70
27/10/2020 08:005,80
27/10/2020 09:006,55
27/10/2020 10:006,90
27/10/2020 11:007,75
27/10/2020 12:008,35
27/10/2020 13:009,45
27/10/2020 14:009,90
27/10/2020 15:009,75
27/10/2020 16:009,40
27/10/2020 17:009,30
27/10/2020 18:009,30
27/10/2020 19:009,10
27/10/2020 20:008,90
27/10/2020 21:008,80
27/10/2020 22:008,70
27/10/2020 23:008,75
28/10/2020 00:008,80
28/10/2020 01:009,05
28/10/2020 02:009,10
28/10/2020 03:009,20
28/10/2020 04:009,30
28/10/2020 05:009,50
28/10/2020 06:009,70
28/10/2020 07:009,50
28/10/2020 08:008,85
28/10/2020 09:0010,90
28/10/2020 10:0011,70
28/10/2020 11:0012,30
28/10/2020 12:0013,25
28/10/2020 13:0014,20
28/10/2020 14:0014,90
28/10/2020 15:0015,10
28/10/2020 16:0014,05
28/10/2020 17:0013,15
28/10/2020 18:0011,45
28/10/2020 19:007,75
28/10/2020 20:005,90
28/10/2020 21:004,90
28/10/2020 22:004,25
28/10/2020 23:003,50
29/10/2020 00:003,00
29/10/2020 01:002,45
29/10/2020 02:002,10
29/10/2020 03:000,90
29/10/2020 04:000,70
29/10/2020 05:000,35
29/10/2020 06:000,30
29/10/2020 07:000,95
29/10/2020 08:002,00
29/10/2020 09:004,70
29/10/2020 10:008,95
29/10/2020 11:0012,80
29/10/2020 12:0014,45
29/10/2020 13:0015,10
29/10/2020 14:0016,40
29/10/2020 15:0016,25
29/10/2020 16:0015,80
29/10/2020 17:0014,95
29/10/2020 18:0011,95
29/10/2020 19:008,55
29/10/2020 20:005,95
29/10/2020 21:004,25
29/10/2020 22:003,60
29/10/2020 23:002,90
30/10/2020 00:001,85
30/10/2020 01:001,40
30/10/2020 02:000,35
30/10/2020 03:00-0,40
30/10/2020 04:00-0,90
30/10/2020 05:00-1,05
30/10/2020 06:00-1,40
30/10/2020 07:00-1,60
30/10/2020 08:00-1,10
30/10/2020 09:002,50
30/10/2020 10:009,10
30/10/2020 11:0012,40
30/10/2020 12:0015,15
30/10/2020 13:0016,30
30/10/2020 14:0016,75
30/10/2020 15:0017,00
30/10/2020 16:0016,50
30/10/2020 17:0014,95
30/10/2020 18:0012,65
30/10/2020 19:009,25
30/10/2020 20:008,30
30/10/2020 21:006,65
30/10/2020 22:006,00
30/10/2020 23:005,30
31/10/2020 00:004,45
31/10/2020 01:003,90
31/10/2020 02:003,85
31/10/2020 03:004,60
31/10/2020 04:004,70
31/10/2020 05:004,00
31/10/2020 06:003,85
31/10/2020 07:003,85
31/10/2020 08:004,50
31/10/2020 09:009,65
31/10/2020 10:0013,95
31/10/2020 11:0013,55
31/10/2020 12:0014,75
31/10/2020 13:0016,05
31/10/2020 14:0016,80
31/10/2020 15:0015,30
31/10/2020 16:0014,60
31/10/2020 17:0013,45
31/10/2020 18:0011,80
31/10/2020 19:0010,95
31/10/2020 20:008,80
31/10/2020 21:007,55
31/10/2020 22:006,75
31/10/2020 23:007,90
01/11/2020 00:0011,70
01/11/2020 01:0010,70
01/11/2020 02:009,35
01/11/2020 03:009,15
01/11/2020 04:009,70
01/11/2020 05:007,20
01/11/2020 06:008,25
01/11/2020 07:008,60
01/11/2020 08:008,85
01/11/2020 09:0011,40
01/11/2020 10:0012,30
01/11/2020 11:0013,40
01/11/2020 12:0014,75
01/11/2020 13:0016,30
01/11/2020 14:0017,10
01/11/2020 15:0015,80
01/11/2020 16:0014,10
01/11/2020 17:0013,25
01/11/2020 18:0012,50
01/11/2020 19:0012,20
01/11/2020 20:0013,05
01/11/2020 21:0013,20
01/11/2020 22:0013,25
01/11/2020 23:0013,25
02/11/2020 00:0013,10
02/11/2020 01:0013,15
02/11/2020 02:0012,80
02/11/2020 03:0012,80
02/11/2020 04:0012,90
02/11/2020 05:0012,70
02/11/2020 06:0012,65
02/11/2020 07:0012,40
02/11/2020 08:0012,30
02/11/2020 09:0012,50
02/11/2020 10:0013,40
02/11/2020 11:0015,35
02/11/2020 12:0016,30
02/11/2020 13:0016,95
02/11/2020 14:0016,40
02/11/2020 15:0016,00
02/11/2020 16:0014,65
02/11/2020 17:0013,80
02/11/2020 18:0012,10
02/11/2020 19:0010,95
02/11/2020 20:009,85
02/11/2020 21:009,50
02/11/2020 22:008,80
02/11/2020 23:008,80
03/11/2020 00:008,70
03/11/2020 01:008,65
03/11/2020 02:008,25
03/11/2020 03:008,20
03/11/2020 04:007,95
03/11/2020 05:007,90
03/11/2020 06:007,10
03/11/2020 07:006,80
03/11/2020 08:005,75
03/11/2020 09:008,25
03/11/2020 10:0010,05
03/11/2020 11:0010,60
03/11/2020 12:0010,75
03/11/2020 13:0010,80
03/11/2020 14:0010,40
03/11/2020 15:0010,20
03/11/2020 16:009,20
03/11/2020 17:006,85
03/11/2020 18:005,75
03/11/2020 19:004,20
03/11/2020 20:002,65
03/11/2020 21:001,35
03/11/2020 22:000,35
03/11/2020 23:00-0,30
04/11/2020 00:00-1,05
04/11/2020 01:00-1,35
04/11/2020 02:00-1,70
04/11/2020 03:00-1,45
04/11/2020 04:00-1,70
04/11/2020 05:00-2,00
04/11/2020 06:00-2,30
04/11/2020 07:00-2,10
04/11/2020 08:00-0,60
04/11/2020 09:000,80
04/11/2020 10:005,30
04/11/2020 11:005,70
04/11/2020 12:006,60
04/11/2020 13:006,30
04/11/2020 14:006,90
04/11/2020 15:006,65
04/11/2020 16:006,20
04/11/2020 17:005,20
04/11/2020 18:004,65
04/11/2020 19:004,40
04/11/2020 20:004,60
04/11/2020 21:004,95
04/11/2020 22:004,70
04/11/2020 23:004,70
05/11/2020 00:005,00
05/11/2020 01:005,55
05/11/2020 02:006,10
05/11/2020 03:006,25
05/11/2020 04:006,10
05/11/2020 05:005,90
05/11/2020 06:006,25
05/11/2020 07:006,65
05/11/2020 08:007,15
05/11/2020 09:007,65
05/11/2020 10:009,20
05/11/2020 11:0011,30
05/11/2020 12:0012,35
05/11/2020 13:0012,70
05/11/2020 14:0013,00
05/11/2020 15:0012,30
05/11/2020 16:0011,35
05/11/2020 17:0010,70
05/11/2020 18:0010,05
05/11/2020 19:009,55
05/11/2020 20:008,90
05/11/2020 21:008,50
05/11/2020 22:008,75
05/11/2020 23:008,40
06/11/2020 00:008,60
06/11/2020 01:008,70
06/11/2020 02:008,50
06/11/2020 03:007,55
06/11/2020 04:007,20
06/11/2020 05:006,65
06/11/2020 06:007,20
06/11/2020 07:006,80
06/11/2020 08:006,65
06/11/2020 09:008,00
06/11/2020 10:009,65
06/11/2020 11:0012,30
06/11/2020 12:0012,70
06/11/2020 13:0012,85
06/11/2020 14:0013,20
06/11/2020 15:0013,15
06/11/2020 16:0013,00
06/11/2020 17:0012,45
06/11/2020 18:0013,75
06/11/2020 19:0013,85
06/11/2020 20:0012,00
06/11/2020 21:0013,50
06/11/2020 22:009,85
06/11/2020 23:008,95
07/11/2020 00:008,90
07/11/2020 01:0010,75
07/11/2020 02:0011,20
07/11/2020 03:0010,40
07/11/2020 04:0010,90
07/11/2020 05:0010,20
07/11/2020 06:009,85
07/11/2020 07:009,30
07/11/2020 08:009,80
07/11/2020 09:009,60
07/11/2020 10:0010,00
07/11/2020 11:0011,25
07/11/2020 12:0011,50
07/11/2020 13:0012,00
07/11/2020 14:0011,95
07/11/2020 15:0012,20
07/11/2020 16:0012,25
07/11/2020 17:0012,00
07/11/2020 18:0011,60
07/11/2020 19:0011,35
07/11/2020 20:0010,85
07/11/2020 21:0010,55
07/11/2020 22:009,65
07/11/2020 23:0010,00
08/11/2020 00:009,55
08/11/2020 01:009,40
08/11/2020 02:009,50
08/11/2020 03:008,90
08/11/2020 04:008,70
08/11/2020 05:008,35
08/11/2020 06:008,30
08/11/2020 07:008,35
08/11/2020 08:008,20
08/11/2020 09:008,90
08/11/2020 10:009,95
08/11/2020 11:0010,10
08/11/2020 12:0010,70
08/11/2020 13:0010,00
08/11/2020 14:009,75
08/11/2020 15:0010,10
08/11/2020 16:009,70
08/11/2020 17:009,85
08/11/2020 18:0010,05
08/11/2020 19:0010,35
08/11/2020 20:009,90
08/11/2020 21:009,45
08/11/2020 22:009,30
08/11/2020 23:009,00
09/11/2020 00:008,90
09/11/2020 01:008,70
09/11/2020 02:008,80
09/11/2020 03:008,80
09/11/2020 04:008,65
09/11/2020 05:008,30
09/11/2020 06:008,00
09/11/2020 07:007,35
09/11/2020 08:007,55
09/11/2020 09:009,10
09/11/2020 10:0010,35
09/11/2020 11:0010,75
09/11/2020 12:0010,45
09/11/2020 13:0011,30
09/11/2020 14:0011,70
09/11/2020 15:0011,40
09/11/2020 16:0011,30
09/11/2020 17:0010,40
09/11/2020 18:009,50
09/11/2020 19:009,30
09/11/2020 20:008,25
09/11/2020 21:006,85
09/11/2020 22:005,05
09/11/2020 23:003,65
10/11/2020 00:003,10
10/11/2020 01:002,30
10/11/2020 02:002,05
10/11/2020 03:001,20
10/11/2020 04:001,15
10/11/2020 05:000,65
10/11/2020 06:000,30
10/11/2020 07:000,10
10/11/2020 08:000,75
10/11/2020 09:003,35
10/11/2020 10:005,85
10/11/2020 11:007,95
10/11/2020 12:008,25
10/11/2020 13:008,80
10/11/2020 14:009,35
10/11/2020 15:008,95
10/11/2020 16:008,85
10/11/2020 17:008,70
10/11/2020 18:008,00
10/11/2020 19:007,70
10/11/2020 20:007,10
10/11/2020 21:004,70
10/11/2020 22:003,90
10/11/2020 23:003,10
11/11/2020 00:002,35
11/11/2020 01:001,90
11/11/2020 02:001,00
11/11/2020 03:000,40
11/11/2020 04:000,10
11/11/2020 05:000,20
11/11/2020 06:00-0,40
11/11/2020 07:00-0,80
11/11/2020 08:00-0,55
11/11/2020 09:003,55
11/11/2020 10:006,35
11/11/2020 11:007,35
11/11/2020 12:009,90
11/11/2020 13:0011,60
11/11/2020 14:0011,15
11/11/2020 15:0010,05
11/11/2020 16:009,45
11/11/2020 17:008,95
11/11/2020 18:008,55
11/11/2020 19:008,40
11/11/2020 20:008,20
11/11/2020 21:007,90
11/11/2020 22:007,35
11/11/2020 23:007,20
12/11/2020 00:006,90
12/11/2020 01:006,80
12/11/2020 02:006,80
12/11/2020 03:005,80
12/11/2020 04:004,55
12/11/2020 05:004,80
12/11/2020 06:005,20
12/11/2020 07:004,65
12/11/2020 08:004,75
12/11/2020 09:008,15
12/11/2020 10:008,90
12/11/2020 11:0010,90
12/11/2020 12:0012,45
12/11/2020 13:0013,65
12/11/2020 14:0014,80
12/11/2020 15:0015,10
12/11/2020 16:0014,85
12/11/2020 17:0013,00
12/11/2020 18:0010,55
12/11/2020 19:007,10
12/11/2020 20:005,80
12/11/2020 21:005,00
12/11/2020 22:004,70
12/11/2020 23:005,15
13/11/2020 00:004,80
13/11/2020 01:004,15
13/11/2020 02:003,75
13/11/2020 03:004,35
13/11/2020 04:003,85
13/11/2020 05:003,80
13/11/2020 06:003,30
13/11/2020 07:001,90
13/11/2020 08:001,30
13/11/2020 09:003,35
13/11/2020 10:006,55
13/11/2020 11:0010,30
13/11/2020 12:0012,90
13/11/2020 13:0013,65
13/11/2020 14:0015,00
13/11/2020 15:0015,30
13/11/2020 16:0014,45
13/11/2020 17:0012,75
13/11/2020 18:0010,90
13/11/2020 19:009,70
13/11/2020 20:008,15
13/11/2020 21:005,35
13/11/2020 22:003,90
13/11/2020 23:002,45
14/11/2020 00:002,00
14/11/2020 01:001,70
14/11/2020 02:001,75
14/11/2020 03:002,40
14/11/2020 04:001,95
14/11/2020 05:002,30
14/11/2020 06:002,90
14/11/2020 07:003,80
14/11/2020 08:004,40
14/11/2020 09:007,65
14/11/2020 10:008,75
14/11/2020 11:008,90
14/11/2020 12:0010,70
14/11/2020 13:0011,55
14/11/2020 14:0010,95
14/11/2020 15:0010,15
14/11/2020 16:0010,70
14/11/2020 17:0010,45
14/11/2020 18:009,90
14/11/2020 19:009,60
14/11/2020 20:009,95
14/11/2020 21:0010,30
14/11/2020 22:0010,35
14/11/2020 23:0010,50
15/11/2020 00:0010,10
15/11/2020 01:0011,00
15/11/2020 02:0010,55
15/11/2020 03:0010,60
15/11/2020 04:0010,60
15/11/2020 05:0010,80
15/11/2020 06:0011,00
15/11/2020 07:0010,85
15/11/2020 08:0011,00
15/11/2020 09:0011,90
15/11/2020 10:0012,70
15/11/2020 11:0013,25
15/11/2020 12:0013,85
15/11/2020 13:0014,55
15/11/2020 14:0013,75
15/11/2020 15:0013,30
15/11/2020 16:0013,25
15/11/2020 17:0013,30
15/11/2020 18:0012,85
15/11/2020 19:0012,75
15/11/2020 20:0012,80
15/11/2020 21:0012,00
15/11/2020 22:0010,45
15/11/2020 23:009,10
16/11/2020 00:008,75
16/11/2020 01:008,40
16/11/2020 02:008,25
16/11/2020 03:007,90
16/11/2020 04:007,80
16/11/2020 05:007,80
16/11/2020 06:007,55
16/11/2020 07:007,30
16/11/2020 08:007,35
16/11/2020 09:008,55
16/11/2020 10:0010,35
16/11/2020 11:0010,80
16/11/2020 12:0011,15
16/11/2020 13:0011,75
16/11/2020 14:0012,60
16/11/2020 15:0013,00
16/11/2020 16:0012,45
16/11/2020 17:0011,20
16/11/2020 18:008,25
16/11/2020 19:005,90
16/11/2020 20:004,85
16/11/2020 21:004,30
16/11/2020 22:003,90
16/11/2020 23:003,50
17/11/2020 00:002,95
17/11/2020 01:003,00
17/11/2020 02:002,30
17/11/2020 03:001,70
17/11/2020 04:001,60
17/11/2020 05:001,50
17/11/2020 06:000,80
17/11/2020 07:000,60
17/11/2020 08:000,90
17/11/2020 09:004,50
17/11/2020 10:008,40
17/11/2020 11:0011,80
17/11/2020 12:0014,25
17/11/2020 13:0016,75
17/11/2020 14:0015,55
17/11/2020 15:0017,10
17/11/2020 16:0016,45
17/11/2020 17:0014,40
17/11/2020 18:0011,95
17/11/2020 19:006,70
17/11/2020 20:005,10
17/11/2020 21:004,85
17/11/2020 22:003,90
17/11/2020 23:002,85
18/11/2020 00:002,50
18/11/2020 01:001,90
18/11/2020 02:001,40
18/11/2020 03:000,75
18/11/2020 04:000,80
18/11/2020 05:000,80
18/11/2020 06:000,80
18/11/2020 07:000,80
18/11/2020 08:001,25
18/11/2020 09:003,80
18/11/2020 10:009,05
18/11/2020 11:0014,45
18/11/2020 12:0015,25
18/11/2020 13:0015,75
18/11/2020 14:0016,95
18/11/2020 15:0017,10
18/11/2020 16:0016,50
18/11/2020 17:0014,25
18/11/2020 18:0011,95
18/11/2020 19:008,45
18/11/2020 20:006,65
18/11/2020 21:006,20
18/11/2020 22:005,50
18/11/2020 23:004,80
19/11/2020 00:003,90
19/11/2020 01:003,65
19/11/2020 02:003,10
19/11/2020 03:002,90
19/11/2020 04:002,75
19/11/2020 05:002,05
19/11/2020 06:002,15
19/11/2020 07:001,95
19/11/2020 08:002,60
19/11/2020 09:005,05
19/11/2020 10:0010,00
19/11/2020 11:0012,65
19/11/2020 12:0013,20
19/11/2020 13:0012,55
19/11/2020 14:0012,70
19/11/2020 15:0012,05
19/11/2020 16:0011,50
19/11/2020 17:008,90
19/11/2020 18:006,65
19/11/2020 19:004,85
19/11/2020 20:003,35
19/11/2020 21:001,95
19/11/2020 22:000,95
19/11/2020 23:000,75
20/11/2020 00:000,10
20/11/2020 01:00-0,40
20/11/2020 02:00-0,80
20/11/2020 03:00-0,75
20/11/2020 04:00-0,85
20/11/2020 05:00-0,15
20/11/2020 06:00-0,20
20/11/2020 07:00-0,65
20/11/2020 08:00-1,50
20/11/2020 09:000,25
20/11/2020 10:004,35
20/11/2020 11:007,15
20/11/2020 12:008,50
20/11/2020 13:009,50
20/11/2020 14:0010,30
20/11/2020 15:0010,50
20/11/2020 16:009,75
20/11/2020 17:007,65
20/11/2020 18:005,35
20/11/2020 19:002,90
20/11/2020 20:001,60
20/11/2020 21:000,85
20/11/2020 22:000,55
20/11/2020 23:000,30
21/11/2020 00:00-0,25
21/11/2020 01:00-0,75
21/11/2020 02:00-1,10
21/11/2020 03:00-0,85
21/11/2020 04:00-0,90
21/11/2020 05:00-1,15
21/11/2020 06:00-1,30
21/11/2020 07:00-1,85
21/11/2020 08:00-1,50
21/11/2020 09:002,55
21/11/2020 10:006,25
21/11/2020 11:0010,95
21/11/2020 12:0013,25
21/11/2020 13:0015,15
21/11/2020 14:0015,25
21/11/2020 15:0015,00
21/11/2020 16:0014,10
21/11/2020 17:0010,75
21/11/2020 18:005,45
21/11/2020 19:003,35
21/11/2020 20:002,40
21/11/2020 21:000,75
21/11/2020 22:00-0,20
21/11/2020 23:00-0,55
22/11/2020 00:00-0,75
22/11/2020 01:00-0,15
22/11/2020 02:00-1,05
22/11/2020 03:00-1,85
22/11/2020 04:00-1,75
22/11/2020 05:00-1,45
22/11/2020 06:00-1,80
22/11/2020 07:00-2,05
22/11/2020 08:00-2,40
22/11/2020 09:001,00
22/11/2020 10:005,20
22/11/2020 11:009,75
22/11/2020 12:0012,15
22/11/2020 13:0013,50
22/11/2020 14:0014,15
22/11/2020 15:0014,25
22/11/2020 16:0013,65
22/11/2020 17:0010,35
22/11/2020 18:005,55
22/11/2020 19:003,50
22/11/2020 20:002,10
22/11/2020 21:001,00
22/11/2020 22:000,30
22/11/2020 23:00-0,20
23/11/2020 00:00-0,50
23/11/2020 01:00-0,95
23/11/2020 02:00-1,30
23/11/2020 03:00-1,70
23/11/2020 04:00-1,60
23/11/2020 05:00-1,85
23/11/2020 06:00-2,30
23/11/2020 07:00-2,55
23/11/2020 08:00-2,60
23/11/2020 09:000,80
23/11/2020 10:004,75
23/11/2020 11:009,95
23/11/2020 12:0012,05
23/11/2020 13:0014,70
23/11/2020 14:0014,95
23/11/2020 15:0014,90
23/11/2020 16:0014,10
23/11/2020 17:0010,85
23/11/2020 18:006,05
23/11/2020 19:003,90
23/11/2020 20:002,75
23/11/2020 21:002,10
23/11/2020 22:001,40
23/11/2020 23:000,50
24/11/2020 00:000,25
24/11/2020 01:00-0,20
24/11/2020 02:000,10
24/11/2020 03:00-0,30
24/11/2020 04:00-0,75
24/11/2020 05:00-1,40
24/11/2020 06:00-1,60
24/11/2020 07:00-2,55
24/11/2020 08:00-2,60
24/11/2020 09:00-1,20
24/11/2020 10:003,10
24/11/2020 11:007,85
24/11/2020 12:008,85
24/11/2020 13:0010,25
24/11/2020 14:0011,20
24/11/2020 15:0011,30
24/11/2020 16:0010,45
24/11/2020 17:008,35
24/11/2020 18:007,50
24/11/2020 19:006,80
24/11/2020 20:006,95
24/11/2020 21:006,65
24/11/2020 22:006,70
24/11/2020 23:006,75
25/11/2020 00:007,00
25/11/2020 01:006,85
25/11/2020 02:006,75
25/11/2020 03:006,50
25/11/2020 04:005,75
25/11/2020 05:005,40
25/11/2020 06:005,50
25/11/2020 07:005,15
25/11/2020 08:004,60
25/11/2020 09:005,10
25/11/2020 10:005,10
25/11/2020 11:005,50
25/11/2020 12:006,15
25/11/2020 13:006,95
25/11/2020 14:007,85
25/11/2020 15:008,20
25/11/2020 16:008,30
25/11/2020 17:007,25
25/11/2020 18:006,60
25/11/2020 19:005,70
25/11/2020 20:005,15
25/11/2020 21:004,20
25/11/2020 22:004,00
25/11/2020 23:004,40
26/11/2020 00:004,55
26/11/2020 01:004,50
26/11/2020 02:004,60
26/11/2020 03:004,90
26/11/2020 04:005,05
26/11/2020 05:005,15
26/11/2020 06:005,30
26/11/2020 07:005,10
26/11/2020 08:005,15
26/11/2020 09:005,45
26/11/2020 10:006,65
26/11/2020 11:008,30
26/11/2020 12:009,35
26/11/2020 13:0010,70
26/11/2020 14:0011,70
26/11/2020 15:0011,55
26/11/2020 16:0010,50
26/11/2020 17:009,00
26/11/2020 18:007,25
26/11/2020 19:006,35
26/11/2020 20:006,40
26/11/2020 21:006,55
26/11/2020 22:005,90
26/11/2020 23:004,80
27/11/2020 00:004,00
27/11/2020 01:003,35
27/11/2020 02:002,70
27/11/2020 03:002,35
27/11/2020 04:002,20
27/11/2020 05:001,20
27/11/2020 06:001,30
27/11/2020 07:000,55
27/11/2020 08:000,70
27/11/2020 09:002,10
27/11/2020 10:005,20
27/11/2020 11:009,65
27/11/2020 12:0011,65
27/11/2020 13:0010,75
27/11/2020 14:0010,85
27/11/2020 15:0011,05
27/11/2020 16:0010,95
27/11/2020 17:009,65
27/11/2020 18:006,30
27/11/2020 19:004,50
27/11/2020 20:004,55
27/11/2020 21:003,75
27/11/2020 22:002,15
27/11/2020 23:001,80
28/11/2020 00:001,45
28/11/2020 01:001,00
28/11/2020 02:000,50
28/11/2020 03:001,20
28/11/2020 04:002,15
28/11/2020 05:002,10
28/11/2020 06:000,85
28/11/2020 07:000,00
28/11/2020 08:000,25
28/11/2020 09:000,30
28/11/2020 10:003,25
28/11/2020 11:005,40
28/11/2020 12:008,95
28/11/2020 13:0010,70
28/11/2020 14:0011,45
28/11/2020 15:0011,40
28/11/2020 16:0010,50
28/11/2020 17:009,40
28/11/2020 18:008,90
28/11/2020 19:008,40
28/11/2020 20:007,30
28/11/2020 21:004,55
28/11/2020 22:003,50
28/11/2020 23:002,60
29/11/2020 00:001,70
29/11/2020 01:000,50
29/11/2020 02:000,30
29/11/2020 03:000,60
29/11/2020 04:000,90
29/11/2020 05:000,30
29/11/2020 06:000,10
29/11/2020 07:00-1,00
29/11/2020 08:00-1,30
29/11/2020 09:000,60
29/11/2020 10:003,15
29/11/2020 11:006,55
29/11/2020 12:009,95
29/11/2020 13:0011,10
29/11/2020 14:0011,10
29/11/2020 15:0012,15
29/11/2020 16:0011,45
29/11/2020 17:009,10
29/11/2020 18:005,20
29/11/2020 19:003,30
29/11/2020 20:002,35
29/11/2020 21:001,35
29/11/2020 22:001,40
29/11/2020 23:000,75
30/11/2020 00:000,05
30/11/2020 01:000,10
30/11/2020 02:00-0,30
30/11/2020 03:00-0,85
30/11/2020 04:00-0,25
30/11/2020 05:00-0,30
30/11/2020 06:00-0,05
30/11/2020 07:000,30
30/11/2020 08:00-0,30
30/11/2020 09:000,50
30/11/2020 10:002,95
30/11/2020 11:005,60
30/11/2020 12:007,90
30/11/2020 13:0010,85
30/11/2020 14:0012,25
30/11/2020 15:0012,40
30/11/2020 16:0011,15
30/11/2020 17:007,90
30/11/2020 18:004,25
30/11/2020 19:002,50
30/11/2020 20:000,95
30/11/2020 21:00-0,45
30/11/2020 22:00-1,40
30/11/2020 23:00-1,95
01/12/2020 00:00-2,40
01/12/2020 01:00-2,60
01/12/2020 02:00-3,00
01/12/2020 03:00-3,35
01/12/2020 04:00-2,30
01/12/2020 05:00-1,45
01/12/2020 06:00-1,00
01/12/2020 07:00-1,10
01/12/2020 08:00-1,05
01/12/2020 09:000,35
01/12/2020 10:002,65
01/12/2020 11:006,60
01/12/2020 12:0010,65
01/12/2020 13:0012,30
01/12/2020 14:0011,65
01/12/2020 15:0011,20
01/12/2020 16:0010,65
01/12/2020 17:009,20
01/12/2020 18:008,10
01/12/2020 19:007,90
01/12/2020 20:007,80
01/12/2020 21:007,20
01/12/2020 22:007,20
01/12/2020 23:007,35
02/12/2020 00:007,20
02/12/2020 01:006,80
02/12/2020 02:006,30
02/12/2020 03:005,70
02/12/2020 04:005,50
02/12/2020 05:004,40
02/12/2020 06:003,95
02/12/2020 07:003,45
02/12/2020 08:002,90
02/12/2020 09:003,55
02/12/2020 10:004,50
02/12/2020 11:006,20
02/12/2020 12:006,50
02/12/2020 13:006,40
02/12/2020 14:006,10
02/12/2020 15:005,20
02/12/2020 16:004,80
02/12/2020 17:003,80
02/12/2020 18:003,40
02/12/2020 19:002,35
02/12/2020 20:002,30
02/12/2020 21:001,40
02/12/2020 22:00-0,80
02/12/2020 23:00-2,20
03/12/2020 00:00-3,00
03/12/2020 01:00-3,30
03/12/2020 02:00-3,50
03/12/2020 03:00-3,90
03/12/2020 04:00-4,30
03/12/2020 05:00-4,70
03/12/2020 06:00-5,40
03/12/2020 07:00-5,10
03/12/2020 08:00-5,25
03/12/2020 09:00-3,85
03/12/2020 10:000,80
03/12/2020 11:003,00
03/12/2020 12:003,00
03/12/2020 13:003,55
03/12/2020 14:003,95
03/12/2020 15:003,60
03/12/2020 16:003,50
03/12/2020 17:003,60
03/12/2020 18:003,90
03/12/2020 19:003,25
03/12/2020 20:003,25
03/12/2020 21:003,50
03/12/2020 22:003,85
03/12/2020 23:002,95
04/12/2020 00:001,95
04/12/2020 01:001,85
04/12/2020 02:000,85
04/12/2020 03:001,10
04/12/2020 04:00-0,15
04/12/2020 05:000,30
04/12/2020 06:000,30
04/12/2020 07:00-0,85
04/12/2020 08:00-1,10
04/12/2020 09:00-0,30
04/12/2020 10:000,40
04/12/2020 11:002,15
04/12/2020 12:001,25
04/12/2020 13:002,45
04/12/2020 14:002,70
04/12/2020 15:004,20
04/12/2020 16:003,70
04/12/2020 17:001,55
04/12/2020 18:00-0,25
04/12/2020 19:00-1,05
04/12/2020 20:00-1,80
04/12/2020 21:00-1,95
04/12/2020 22:00-1,30
04/12/2020 23:00-1,25
05/12/2020 00:00-2,05
05/12/2020 01:00-2,10
05/12/2020 02:00-2,70
05/12/2020 03:00-4,05
05/12/2020 04:00-4,65
05/12/2020 05:00-5,00
05/12/2020 06:00-4,90
05/12/2020 07:00-4,80
05/12/2020 08:00-4,40
05/12/2020 09:00-2,55
05/12/2020 10:000,45
05/12/2020 11:000,45
05/12/2020 12:000,20
05/12/2020 13:002,25
05/12/2020 14:003,45
05/12/2020 15:003,50
05/12/2020 16:003,20
05/12/2020 17:002,45
05/12/2020 18:001,85
05/12/2020 19:00-0,30
05/12/2020 20:00-0,55
05/12/2020 21:00-1,00
05/12/2020 22:00-0,55
05/12/2020 23:00-1,95
06/12/2020 00:00-2,05
06/12/2020 01:00-2,80
06/12/2020 02:00-3,40
06/12/2020 03:00-3,80
06/12/2020 04:00-4,15
06/12/2020 05:00-3,50
06/12/2020 06:00-2,30
06/12/2020 07:00-2,10
06/12/2020 08:00-2,05
06/12/2020 09:00-1,70
06/12/2020 10:00-0,25
06/12/2020 11:000,80
06/12/2020 12:002,40
06/12/2020 13:002,60
06/12/2020 14:003,40
06/12/2020 15:003,60
06/12/2020 16:003,95
06/12/2020 17:003,30
06/12/2020 18:002,75
06/12/2020 19:002,15
06/12/2020 20:001,95
06/12/2020 21:002,10
06/12/2020 22:002,10
06/12/2020 23:001,65
07/12/2020 00:001,20
07/12/2020 01:000,75
07/12/2020 02:000,35
07/12/2020 03:002,85
07/12/2020 04:003,55
07/12/2020 05:004,00
07/12/2020 06:004,20
07/12/2020 07:004,55
07/12/2020 08:004,30
07/12/2020 09:004,40
07/12/2020 10:004,95
07/12/2020 11:005,40
07/12/2020 12:006,00
07/12/2020 13:005,95
07/12/2020 14:006,30
07/12/2020 15:006,60
07/12/2020 16:005,60
07/12/2020 17:002,65
07/12/2020 18:002,20
07/12/2020 19:002,30
07/12/2020 20:001,85
07/12/2020 21:001,60
07/12/2020 22:002,30
07/12/2020 23:001,60
08/12/2020 00:001,25
08/12/2020 01:001,40
08/12/2020 02:001,60
08/12/2020 03:000,80
08/12/2020 04:001,40
08/12/2020 05:001,00
08/12/2020 06:000,70
08/12/2020 07:000,40
08/12/2020 08:000,50
08/12/2020 09:001,25
08/12/2020 10:002,20
08/12/2020 11:001,75
08/12/2020 12:001,90
08/12/2020 13:003,70
08/12/2020 14:004,65
08/12/2020 15:004,70
08/12/2020 16:004,20
08/12/2020 17:002,85
08/12/2020 18:002,15
08/12/2020 19:000,95
08/12/2020 20:000,80
08/12/2020 21:000,60
08/12/2020 22:00-0,20
08/12/2020 23:00-0,30
09/12/2020 00:000,20
09/12/2020 01:000,70
09/12/2020 02:00-1,35
09/12/2020 03:00-2,50
09/12/2020 04:00-2,45
09/12/2020 05:00-2,45
09/12/2020 06:00-2,70
09/12/2020 07:00-2,80
09/12/2020 08:00-2,80
09/12/2020 09:00-2,50
09/12/2020 10:00-0,75
09/12/2020 11:000,70
09/12/2020 12:003,45
09/12/2020 13:005,05
09/12/2020 14:005,15
09/12/2020 15:005,50
09/12/2020 16:004,95
09/12/2020 17:004,40
09/12/2020 18:003,90
09/12/2020 19:003,35
09/12/2020 20:003,20
09/12/2020 21:003,00
09/12/2020 22:003,30
09/12/2020 23:003,00
10/12/2020 00:002,80
10/12/2020 01:002,95
10/12/2020 02:003,40
10/12/2020 03:003,30
10/12/2020 04:003,30
10/12/2020 05:003,10
10/12/2020 06:003,10
10/12/2020 07:002,80
10/12/2020 08:002,20
10/12/2020 09:002,20
10/12/2020 10:006,25
10/12/2020 11:006,85
10/12/2020 12:008,40
10/12/2020 13:009,85
10/12/2020 14:0010,30
10/12/2020 15:0010,50
10/12/2020 16:009,50
10/12/2020 17:008,15
10/12/2020 18:007,00
10/12/2020 19:006,60
10/12/2020 20:005,10
10/12/2020 21:005,30
10/12/2020 22:007,30
10/12/2020 23:007,05
11/12/2020 00:007,90
11/12/2020 01:008,00
11/12/2020 02:007,90
11/12/2020 03:009,10
11/12/2020 04:008,20
11/12/2020 05:007,80
11/12/2020 06:006,80
11/12/2020 07:006,40
11/12/2020 08:006,65
11/12/2020 09:006,60
11/12/2020 10:007,80
11/12/2020 11:0011,20
11/12/2020 12:0012,40
11/12/2020 13:0012,75
11/12/2020 14:0013,55
11/12/2020 15:0013,10
11/12/2020 16:0012,20
11/12/2020 17:0010,60
11/12/2020 18:008,85
11/12/2020 19:008,00
11/12/2020 20:004,30
11/12/2020 21:003,10
11/12/2020 22:002,85
11/12/2020 23:001,55
12/12/2020 00:000,20
12/12/2020 01:00-0,35
12/12/2020 02:00-0,80
12/12/2020 03:00-1,35
12/12/2020 04:00-1,40
12/12/2020 05:00-1,30
12/12/2020 06:00-1,50
12/12/2020 07:00-2,10
12/12/2020 08:00-2,60
12/12/2020 09:00-2,05
12/12/2020 10:001,05
12/12/2020 11:005,20
12/12/2020 12:007,35
12/12/2020 13:009,10
12/12/2020 14:0010,75
12/12/2020 15:0011,30
12/12/2020 16:0010,60
12/12/2020 17:007,90
12/12/2020 18:004,30
12/12/2020 19:002,20
12/12/2020 20:001,30
12/12/2020 21:000,30
12/12/2020 22:000,25
12/12/2020 23:000,40
13/12/2020 00:000,25
13/12/2020 01:000,10
13/12/2020 02:00-0,60
13/12/2020 03:00-1,30
13/12/2020 04:00-1,50
13/12/2020 05:00-1,30
13/12/2020 06:00-0,90
13/12/2020 07:00-0,50
13/12/2020 08:00-0,40
13/12/2020 09:00-0,05
13/12/2020 10:001,35
13/12/2020 11:005,15
13/12/2020 12:007,95
13/12/2020 13:007,60
13/12/2020 14:007,50
13/12/2020 15:008,25
13/12/2020 16:008,80
13/12/2020 17:009,00
13/12/2020 18:009,25
13/12/2020 19:009,60
13/12/2020 20:009,60
13/12/2020 21:009,70
13/12/2020 22:009,60
13/12/2020 23:009,60
14/12/2020 00:009,35
14/12/2020 01:008,90
14/12/2020 02:008,60
14/12/2020 03:008,50
14/12/2020 04:008,25
14/12/2020 05:008,40
14/12/2020 06:008,05
14/12/2020 07:008,00
14/12/2020 08:008,20
14/12/2020 09:008,30
14/12/2020 10:008,65
14/12/2020 11:008,70
14/12/2020 12:008,80
14/12/2020 13:009,00
14/12/2020 14:009,20
14/12/2020 15:009,30
14/12/2020 16:008,90
14/12/2020 17:008,60
14/12/2020 18:008,55
14/12/2020 19:008,30
14/12/2020 20:008,10
14/12/2020 21:007,60
14/12/2020 22:007,15
14/12/2020 23:006,40
15/12/2020 00:005,60
15/12/2020 01:005,20
15/12/2020 02:004,80
15/12/2020 03:004,65
15/12/2020 04:004,70
15/12/2020 05:004,15
15/12/2020 06:004,10
15/12/2020 07:003,50
15/12/2020 08:003,00
15/12/2020 09:003,35
15/12/2020 10:004,40
15/12/2020 11:005,15
15/12/2020 12:005,45
15/12/2020 13:005,10
15/12/2020 14:006,40
15/12/2020 15:006,15
15/12/2020 16:005,75
15/12/2020 17:005,40
15/12/2020 18:005,10
15/12/2020 19:004,80
15/12/2020 20:005,00
15/12/2020 21:004,90
15/12/2020 22:004,90
15/12/2020 23:004,60
16/12/2020 00:004,50
16/12/2020 01:004,50
16/12/2020 02:004,80
16/12/2020 03:004,50
16/12/2020 04:004,45
16/12/2020 05:004,05
16/12/2020 06:003,95
16/12/2020 07:004,00
16/12/2020 08:004,80
16/12/2020 09:005,10
16/12/2020 10:005,10
16/12/2020 11:005,40
16/12/2020 12:006,05
16/12/2020 13:006,40
16/12/2020 14:006,60
16/12/2020 15:006,60
16/12/2020 16:006,75
16/12/2020 17:006,75
16/12/2020 18:006,35
16/12/2020 19:006,10
16/12/2020 20:005,60
16/12/2020 21:004,65
16/12/2020 22:004,10
16/12/2020 23:004,00
17/12/2020 00:004,10
17/12/2020 01:004,10
17/12/2020 02:004,10
17/12/2020 03:003,95
17/12/2020 04:003,60
17/12/2020 05:003,45
17/12/2020 06:001,60
17/12/2020 07:000,60
17/12/2020 08:000,15
17/12/2020 09:000,10
17/12/2020 10:000,90
17/12/2020 11:004,15
17/12/2020 12:006,70
17/12/2020 13:007,25
17/12/2020 14:008,20
17/12/2020 15:008,80
17/12/2020 16:008,05
17/12/2020 17:006,15
17/12/2020 18:005,40
17/12/2020 19:003,45
17/12/2020 20:001,35
17/12/2020 21:000,40
17/12/2020 22:000,10
17/12/2020 23:000,80
18/12/2020 00:001,15
18/12/2020 01:000,55
18/12/2020 02:00-0,25
18/12/2020 03:00-0,45
18/12/2020 04:000,15
18/12/2020 05:000,35
18/12/2020 06:001,10
18/12/2020 07:000,90
18/12/2020 08:000,65
18/12/2020 09:000,75
18/12/2020 10:001,15
18/12/2020 11:002,15
18/12/2020 12:003,10
18/12/2020 13:004,70
18/12/2020 14:005,10
18/12/2020 15:005,00
18/12/2020 16:004,90
18/12/2020 17:004,30
18/12/2020 18:004,00
18/12/2020 19:003,65
18/12/2020 20:003,50
18/12/2020 21:003,80
18/12/2020 22:004,40
18/12/2020 23:004,30
19/12/2020 00:004,10
19/12/2020 01:004,70
19/12/2020 02:004,60
19/12/2020 03:004,70
19/12/2020 04:004,65
19/12/2020 05:004,45
19/12/2020 06:004,40
19/12/2020 07:004,50
19/12/2020 08:004,90
19/12/2020 09:005,25
19/12/2020 10:005,60
19/12/2020 11:006,00
19/12/2020 12:006,80
19/12/2020 13:007,85
19/12/2020 14:008,05
19/12/2020 15:008,00
19/12/2020 16:007,80
19/12/2020 17:007,00
19/12/2020 18:005,80
19/12/2020 19:003,75
19/12/2020 20:001,90
19/12/2020 21:001,10
19/12/2020 22:00-0,10
19/12/2020 23:00-0,40
20/12/2020 00:00-0,85
20/12/2020 01:00-0,90
20/12/2020 02:00-1,00
20/12/2020 03:00-1,75
20/12/2020 04:00-2,00
20/12/2020 05:00-2,50
20/12/2020 06:00-2,80
20/12/2020 07:00-2,80
20/12/2020 08:00-2,80
20/12/2020 09:00-2,45
20/12/2020 10:00-2,05
20/12/2020 11:00-1,25
20/12/2020 12:000,40
20/12/2020 13:002,15
20/12/2020 14:002,90
20/12/2020 15:004,60
20/12/2020 16:004,15
20/12/2020 17:004,20
20/12/2020 18:004,10
20/12/2020 19:004,50
20/12/2020 20:004,65
20/12/2020 21:005,10
20/12/2020 22:005,40
20/12/2020 23:005,70
21/12/2020 00:005,70
21/12/2020 01:005,80
21/12/2020 02:006,10
21/12/2020 03:006,25
21/12/2020 04:006,50
21/12/2020 05:006,60
21/12/2020 06:006,65
21/12/2020 07:006,55
21/12/2020 08:006,55
21/12/2020 09:006,80
21/12/2020 10:007,10
21/12/2020 11:007,80
21/12/2020 12:008,40
21/12/2020 13:008,80
21/12/2020 14:009,45
21/12/2020 15:0011,20
21/12/2020 16:0010,35
21/12/2020 17:009,05
21/12/2020 18:008,75
21/12/2020 19:008,70
21/12/2020 20:008,90
21/12/2020 21:008,85
21/12/2020 22:009,00
21/12/2020 23:009,10
22/12/2020 00:007,10
22/12/2020 01:005,55
22/12/2020 02:005,05
22/12/2020 03:005,80
22/12/2020 04:006,20
22/12/2020 05:005,30
22/12/2020 06:009,10
22/12/2020 07:008,95
22/12/2020 08:008,95
22/12/2020 09:009,90
22/12/2020 10:0010,40
22/12/2020 11:0010,60
22/12/2020 12:0011,05
22/12/2020 13:0011,85
22/12/2020 14:0011,85
22/12/2020 15:0011,90
22/12/2020 16:0011,60
22/12/2020 17:0010,95
22/12/2020 18:0010,40
22/12/2020 19:0010,45
22/12/2020 20:0010,50
22/12/2020 21:0010,45
22/12/2020 22:0010,60
22/12/2020 23:0010,25
23/12/2020 00:0010,35
23/12/2020 01:0010,40
23/12/2020 02:009,95
23/12/2020 03:009,45
23/12/2020 04:008,90
23/12/2020 05:008,90
23/12/2020 06:008,80
23/12/2020 07:008,70
23/12/2020 08:008,40
23/12/2020 09:008,20
23/12/2020 10:007,70
23/12/2020 11:007,70
23/12/2020 12:007,70
23/12/2020 13:007,80
23/12/2020 14:007,70
23/12/2020 15:008,05
23/12/2020 16:008,90
23/12/2020 17:008,30
23/12/2020 18:007,65
23/12/2020 19:006,90
23/12/2020 20:005,70
23/12/2020 21:005,85
23/12/2020 22:004,55
23/12/2020 23:004,15
24/12/2020 00:003,80
24/12/2020 01:003,65
24/12/2020 02:003,00
24/12/2020 03:001,85
24/12/2020 04:001,00
24/12/2020 05:000,40
24/12/2020 06:00-0,90
24/12/2020 07:00-1,50
24/12/2020 08:00-2,30
24/12/2020 09:00-1,70
24/12/2020 10:000,60
24/12/2020 11:003,40
24/12/2020 12:006,05
24/12/2020 13:006,85
24/12/2020 14:007,50
24/12/2020 15:007,50
24/12/2020 16:006,85
24/12/2020 17:004,85
24/12/2020 18:003,10
24/12/2020 19:002,75
24/12/2020 20:003,30
24/12/2020 21:002,95
24/12/2020 22:002,30
24/12/2020 23:001,60
25/12/2020 00:001,20
25/12/2020 01:001,05
25/12/2020 02:001,50
25/12/2020 03:001,00
25/12/2020 04:000,50
25/12/2020 05:00-0,50
25/12/2020 06:00-0,70
25/12/2020 07:00-1,35
25/12/2020 08:000,25
25/12/2020 09:00-0,55
25/12/2020 10:000,45
25/12/2020 11:002,90
25/12/2020 12:001,45
25/12/2020 13:002,00
25/12/2020 14:002,20
25/12/2020 15:001,85
25/12/2020 16:001,80
25/12/2020 17:000,30
25/12/2020 18:000,30
25/12/2020 19:00-0,50
25/12/2020 20:00-0,15
25/12/2020 21:00-0,35
25/12/2020 22:00-0,15
25/12/2020 23:00-0,20
26/12/2020 00:00-0,35
26/12/2020 01:00-0,45
26/12/2020 02:00-0,50
26/12/2020 03:000,20
26/12/2020 04:000,30
26/12/2020 05:00-0,20
26/12/2020 06:00-1,70
26/12/2020 07:00-1,10
26/12/2020 08:00-0,40
26/12/2020 09:00-0,15
26/12/2020 10:001,20
26/12/2020 11:003,60
26/12/2020 12:003,80
26/12/2020 13:004,05
26/12/2020 14:004,70
26/12/2020 15:005,55
26/12/2020 16:005,30
26/12/2020 17:002,90
26/12/2020 18:000,05
26/12/2020 19:00-1,55
26/12/2020 20:00-2,65
26/12/2020 21:00-3,40
26/12/2020 22:00-3,75
26/12/2020 23:00-4,30
27/12/2020 00:00-4,90
27/12/2020 01:00-5,15
27/12/2020 02:00-5,30
27/12/2020 03:00-4,80
27/12/2020 04:00-4,60
27/12/2020 05:00-4,30
27/12/2020 06:00-3,65
27/12/2020 07:00-1,85
27/12/2020 08:00-1,45
27/12/2020 09:00-0,15
27/12/2020 10:00-0,10
27/12/2020 11:001,05
27/12/2020 12:001,30
27/12/2020 13:001,15
27/12/2020 14:001,00
27/12/2020 15:001,85
27/12/2020 16:002,50
27/12/2020 17:001,95
27/12/2020 18:001,40
27/12/2020 19:002,05
27/12/2020 20:002,85
27/12/2020 21:003,30
27/12/2020 22:003,50
27/12/2020 23:003,50
28/12/2020 00:002,75
28/12/2020 01:001,75
28/12/2020 02:001,55
28/12/2020 03:001,45
28/12/2020 04:000,50
28/12/2020 05:00-0,65
28/12/2020 06:00-1,10
28/12/2020 07:00-1,50
28/12/2020 08:00-0,55
28/12/2020 09:000,00
28/12/2020 10:000,85
28/12/2020 11:002,05
28/12/2020 12:002,05
28/12/2020 13:002,40
28/12/2020 14:004,35
28/12/2020 15:005,20
28/12/2020 16:001,05
28/12/2020 17:000,10
28/12/2020 18:000,40
28/12/2020 19:000,85
28/12/2020 20:000,80
28/12/2020 21:000,75
28/12/2020 22:000,80
28/12/2020 23:000,20
29/12/2020 00:000,30
29/12/2020 01:000,35
29/12/2020 02:00-0,20
29/12/2020 03:00-0,70
29/12/2020 04:00-1,00
29/12/2020 05:00-0,70
29/12/2020 06:00-0,95
29/12/2020 07:00-0,90
29/12/2020 08:00-1,60
29/12/2020 09:00-1,40
29/12/2020 10:000,90
29/12/2020 11:002,70
29/12/2020 12:003,20
29/12/2020 13:003,65
29/12/2020 14:003,85
29/12/2020 15:003,10
29/12/2020 16:002,90
29/12/2020 17:001,80
29/12/2020 18:000,10
29/12/2020 19:00-0,50
29/12/2020 20:00-1,00
29/12/2020 21:00-1,90
29/12/2020 22:00-1,95
29/12/2020 23:00-2,80
30/12/2020 00:00-3,00
30/12/2020 01:00-3,40
30/12/2020 02:00-3,80
30/12/2020 03:00-3,65
30/12/2020 04:00-4,10
30/12/2020 05:00-3,40
30/12/2020 06:00-3,55
30/12/2020 07:00-3,40
30/12/2020 08:00-3,65
30/12/2020 09:00-3,35
30/12/2020 10:00-1,70
30/12/2020 11:00-0,55
30/12/2020 12:001,15
30/12/2020 13:002,20
30/12/2020 14:002,10
30/12/2020 15:002,30
30/12/2020 16:002,30
30/12/2020 17:001,20
30/12/2020 18:00-0,60
30/12/2020 19:00-1,45
30/12/2020 20:00-1,70
30/12/2020 21:00-1,95
30/12/2020 22:00-1,70
30/12/2020 23:000,25
31/12/2020 00:000,35
31/12/2020 01:000,70
31/12/2020 02:000,30
31/12/2020 03:001,10
31/12/2020 04:000,90
31/12/2020 05:001,20
31/12/2020 06:001,15
31/12/2020 07:000,65
31/12/2020 08:000,85
31/12/2020 09:000,80
31/12/2020 10:001,15
31/12/2020 11:001,15
31/12/2020 12:003,20
31/12/2020 13:003,85
31/12/2020 14:003,45
31/12/2020 15:003,40
31/12/2020 16:004,00
31/12/2020 17:003,50
31/12/2020 18:002,10
31/12/2020 19:002,20
31/12/2020 20:000,70
31/12/2020 21:000,75
31/12/2020 22:000,70
31/12/2020 23:001,00
01/01/2021 00:000,75
01/01/2021 01:000,75
01/01/2021 02:000,25
01/01/2021 03:000,30
01/01/2021 04:00-0,10
01/01/2021 05:00-1,15
01/01/2021 06:00-2,60
01/01/2021 07:00-3,10
01/01/2021 08:00-3,55
01/01/2021 09:00-3,70
01/01/2021 10:00-2,05
01/01/2021 11:000,15
01/01/2021 12:001,45
01/01/2021 13:000,20
01/01/2021 14:000,50
01/01/2021 15:001,95
01/01/2021 16:00-0,10
01/01/2021 17:00-1,55
01/01/2021 18:00-2,30
01/01/2021 19:00-2,30
01/01/2021 20:00-3,00
01/01/2021 21:00-3,30
01/01/2021 22:00-3,30
01/01/2021 23:00-3,65
02/01/2021 00:00-3,30
02/01/2021 01:00-2,95
02/01/2021 02:00-2,80
02/01/2021 03:00-3,20
02/01/2021 04:00-3,05
02/01/2021 05:00-2,90
02/01/2021 06:00-2,65
02/01/2021 07:00-2,00
02/01/2021 08:00-2,35
02/01/2021 09:00-1,95
02/01/2021 10:001,00
02/01/2021 11:000,70
02/01/2021 12:000,70
02/01/2021 13:001,05
02/01/2021 14:001,00
02/01/2021 15:000,90
02/01/2021 16:000,45
02/01/2021 17:00-0,75
02/01/2021 18:00-1,25
02/01/2021 19:00-2,15
02/01/2021 20:00-1,40
02/01/2021 21:00-2,60
02/01/2021 22:00-3,60
02/01/2021 23:00-2,75
03/01/2021 00:00-1,50
03/01/2021 01:00-3,70
03/01/2021 02:00-5,70
03/01/2021 03:00-6,35
03/01/2021 04:00-7,65
03/01/2021 05:00-6,00
03/01/2021 06:00-5,65
03/01/2021 07:00-4,70
03/01/2021 08:00-3,75
03/01/2021 09:00-5,05
03/01/2021 10:00-2,90
03/01/2021 11:000,70
03/01/2021 12:002,05
03/01/2021 13:003,35
03/01/2021 14:002,65
03/01/2021 15:004,90
03/01/2021 16:003,40
03/01/2021 17:000,90
03/01/2021 18:00-0,45
03/01/2021 19:00-2,35
03/01/2021 20:00-3,30
03/01/2021 21:00-4,35
03/01/2021 22:00-5,10
03/01/2021 23:00-6,05
04/01/2021 00:00-6,85
04/01/2021 01:00-7,15
04/01/2021 02:00-8,25
04/01/2021 03:00-8,10
04/01/2021 04:00-7,30
04/01/2021 05:00-7,10
04/01/2021 06:00-8,40
04/01/2021 07:00-9,10
04/01/2021 08:00-9,55
04/01/2021 09:00-8,55
04/01/2021 10:00-5,85
04/01/2021 11:00-4,10
04/01/2021 12:00-1,60
04/01/2021 13:000,45
04/01/2021 14:000,70
04/01/2021 15:000,75
04/01/2021 16:000,10
04/01/2021 17:00-0,85
04/01/2021 18:00-1,45
04/01/2021 19:00-2,45
04/01/2021 20:00-1,90
04/01/2021 21:00-4,80
04/01/2021 22:00-4,40
04/01/2021 23:00-5,90
05/01/2021 00:00-6,15
05/01/2021 01:00-7,30
05/01/2021 02:00-8,05
05/01/2021 03:00-7,15
05/01/2021 04:00-8,35
05/01/2021 05:00-9,00
05/01/2021 06:00-10,00
05/01/2021 07:00-10,45
05/01/2021 08:00-9,65
05/01/2021 09:00-6,85
05/01/2021 10:00-4,30
05/01/2021 11:00-1,25
05/01/2021 12:002,95
05/01/2021 13:003,80
05/01/2021 14:003,40
05/01/2021 15:002,45
05/01/2021 16:001,60
05/01/2021 17:00-0,10
05/01/2021 18:00-1,80
05/01/2021 19:00-4,10
05/01/2021 20:00-5,15
05/01/2021 21:00-4,20
05/01/2021 22:00-3,30
05/01/2021 23:00-2,70
06/01/2021 00:00-2,10
06/01/2021 01:00-2,60
06/01/2021 02:00-2,80
06/01/2021 03:00-3,60
06/01/2021 04:00-4,35
06/01/2021 05:00-3,60
06/01/2021 06:00-3,60
06/01/2021 07:00-4,00
06/01/2021 08:00-5,10
06/01/2021 09:00-3,85
06/01/2021 10:00-2,35
06/01/2021 11:000,30
06/01/2021 12:002,55
06/01/2021 13:003,40
06/01/2021 14:003,45
06/01/2021 15:003,55
06/01/2021 16:002,45
06/01/2021 17:000,70
06/01/2021 18:00-3,30
06/01/2021 19:00-5,70
06/01/2021 20:00-6,30
06/01/2021 21:00-7,10
06/01/2021 22:00-8,05
06/01/2021 23:00-8,80
07/01/2021 00:00-9,15
07/01/2021 01:00-9,30
07/01/2021 02:00-9,40
07/01/2021 03:00-10,30
07/01/2021 04:00-10,40
07/01/2021 05:00-10,40
07/01/2021 06:00-11,00
07/01/2021 07:00-11,35
07/01/2021 08:00-11,00
07/01/2021 09:00-10,15
07/01/2021 10:00-5,85
07/01/2021 11:00-1,55
07/01/2021 12:000,85
07/01/2021 13:001,25
07/01/2021 14:001,75
07/01/2021 15:001,45
07/01/2021 16:000,80
07/01/2021 17:00-0,60
07/01/2021 18:00-4,85
07/01/2021 19:00-6,65
07/01/2021 20:00-7,85
07/01/2021 21:00-8,95
07/01/2021 22:00-9,45
07/01/2021 23:00-10,00
08/01/2021 00:00-10,05
08/01/2021 01:00-10,70
08/01/2021 02:00-11,40
08/01/2021 03:00-12,00
08/01/2021 04:00-12,40
08/01/2021 05:00-12,80
08/01/2021 06:00-12,75
08/01/2021 07:00-12,90
08/01/2021 08:00-12,75
08/01/2021 09:00-11,30
08/01/2021 10:00-5,80
08/01/2021 11:000,25
08/01/2021 12:002,05
08/01/2021 13:002,00
08/01/2021 14:002,50
08/01/2021 15:002,25
08/01/2021 16:000,70
08/01/2021 17:00-0,90
08/01/2021 18:00-2,65
08/01/2021 19:00-4,20
08/01/2021 20:00-5,35
08/01/2021 21:00-5,70
08/01/2021 22:00-3,00
08/01/2021 23:00-3,20
09/01/2021 00:00-2,20
09/01/2021 01:00-2,05
09/01/2021 02:00-1,90
09/01/2021 03:00-1,80
09/01/2021 04:00-1,60
09/01/2021 05:00-1,85
09/01/2021 06:00-2,00
09/01/2021 07:00-2,00
09/01/2021 08:00-1,70
09/01/2021 09:00-1,50
09/01/2021 10:00-1,10
09/01/2021 11:00-0,70
09/01/2021 12:00-0,15
09/01/2021 13:000,20
09/01/2021 14:000,30
09/01/2021 15:00-0,10
09/01/2021 16:00-0,05
09/01/2021 17:000,10
09/01/2021 18:00-0,45
09/01/2021 19:00-0,40
09/01/2021 20:00-0,35
09/01/2021 21:00-0,30
09/01/2021 22:00-0,20
09/01/2021 23:00-0,10
10/01/2021 00:000,00
10/01/2021 01:000,10
10/01/2021 02:00-0,25
10/01/2021 03:000,05
10/01/2021 04:000,00
10/01/2021 05:00-0,20
10/01/2021 06:00-0,20
10/01/2021 07:00-0,60
10/01/2021 08:00-0,35
10/01/2021 09:000,20
10/01/2021 10:001,10
10/01/2021 11:001,05
10/01/2021 12:002,15
10/01/2021 13:002,20
10/01/2021 14:002,45
10/01/2021 15:002,35
10/01/2021 16:002,00
10/01/2021 17:00-0,15
10/01/2021 18:00-0,95
10/01/2021 19:00-0,90
10/01/2021 20:00-0,70
10/01/2021 21:00-0,85
10/01/2021 22:00-0,90
10/01/2021 23:00-0,50
11/01/2021 00:00-0,30
11/01/2021 01:00-0,45
11/01/2021 02:00-0,80
11/01/2021 03:00-0,35
11/01/2021 04:00-1,40
11/01/2021 05:00-0,85
11/01/2021 06:00-1,85
11/01/2021 07:00-2,95
11/01/2021 08:00-3,55
11/01/2021 09:00-2,70
11/01/2021 10:000,75
11/01/2021 11:002,45
11/01/2021 12:002,80
11/01/2021 13:002,85
11/01/2021 14:002,60
11/01/2021 15:002,30
11/01/2021 16:002,15
11/01/2021 17:000,65
11/01/2021 18:00-0,15
11/01/2021 19:00-2,75
11/01/2021 20:00-4,50
11/01/2021 21:00-5,75
11/01/2021 22:00-7,00
11/01/2021 23:00-7,70
12/01/2021 00:00-8,35
12/01/2021 01:00-8,55
12/01/2021 02:00-8,90
12/01/2021 03:00-9,00
12/01/2021 04:00-9,50
12/01/2021 05:00-9,90
12/01/2021 06:00-10,15
12/01/2021 07:00-10,35
12/01/2021 08:00-11,00
12/01/2021 09:00-10,05
12/01/2021 10:00-7,05
12/01/2021 11:00-4,15
12/01/2021 12:00-2,35
12/01/2021 13:000,50
12/01/2021 14:002,40
12/01/2021 15:003,95
12/01/2021 16:003,75
12/01/2021 17:002,35
12/01/2021 18:00-2,30
12/01/2021 19:00-3,85
12/01/2021 20:00-5,15
12/01/2021 21:00-6,00
12/01/2021 22:00-6,60
12/01/2021 23:00-7,90
13/01/2021 00:00-8,00
13/01/2021 01:00-7,35
13/01/2021 02:00-6,00
13/01/2021 03:00-6,50
13/01/2021 04:00-6,15
13/01/2021 05:00-5,85
13/01/2021 06:00-5,70
13/01/2021 07:00-6,30
13/01/2021 08:00-6,75
13/01/2021 09:00-7,40
13/01/2021 10:00-5,95
13/01/2021 11:00-3,80
13/01/2021 12:00-2,20
13/01/2021 13:00-0,75
13/01/2021 14:000,15
13/01/2021 15:002,30
13/01/2021 16:003,30
13/01/2021 17:001,30
13/01/2021 18:00-2,80
13/01/2021 19:00-4,45
13/01/2021 20:00-5,45
13/01/2021 21:00-6,40
13/01/2021 22:00-7,20
13/01/2021 23:00-7,45
14/01/2021 00:00-8,00
14/01/2021 01:00-8,60
14/01/2021 02:00-8,65
14/01/2021 03:00-9,40
14/01/2021 04:00-9,50
14/01/2021 05:00-9,55
14/01/2021 06:00-9,45
14/01/2021 07:00-9,70
14/01/2021 08:00-10,15
14/01/2021 09:00-9,45
14/01/2021 10:00-4,40
14/01/2021 11:00-1,15
14/01/2021 12:002,10
14/01/2021 13:003,90
14/01/2021 14:005,95
14/01/2021 15:006,30
14/01/2021 16:007,55
14/01/2021 17:007,10
14/01/2021 18:005,90
14/01/2021 19:003,10
14/01/2021 20:001,20
14/01/2021 21:00-0,50
14/01/2021 22:00-1,85
14/01/2021 23:00-2,30
15/01/2021 00:00-3,05
15/01/2021 01:00-4,05
15/01/2021 02:00-4,90
15/01/2021 03:00-5,55
15/01/2021 04:00-6,15
15/01/2021 05:00-6,60
15/01/2021 06:00-6,85
15/01/2021 07:00-7,20
15/01/2021 08:00-6,90
15/01/2021 09:00-6,65
15/01/2021 10:00-1,90
15/01/2021 11:00-0,25
15/01/2021 12:004,55
15/01/2021 13:005,85
15/01/2021 14:005,95
15/01/2021 15:006,50
15/01/2021 16:005,90
15/01/2021 17:004,00
15/01/2021 18:000,25
15/01/2021 19:00-1,85
15/01/2021 20:00-2,80
15/01/2021 21:00-3,05
15/01/2021 22:00-4,10
15/01/2021 23:00-4,00
16/01/2021 00:00-5,30
16/01/2021 01:00-6,00
16/01/2021 02:00-6,70
16/01/2021 03:00-7,25
16/01/2021 04:00-7,80
16/01/2021 05:00-7,50
16/01/2021 06:00-7,80
16/01/2021 07:00-7,90
16/01/2021 08:00-7,60
16/01/2021 09:00-6,00
16/01/2021 10:00-1,65
16/01/2021 11:001,25
16/01/2021 12:005,30
16/01/2021 13:007,50
16/01/2021 14:008,70
16/01/2021 15:008,25
16/01/2021 16:004,40
16/01/2021 17:002,00
16/01/2021 18:00-0,90
16/01/2021 19:00-2,70
16/01/2021 20:00-3,50
16/01/2021 21:00-3,80
16/01/2021 22:00-4,70
16/01/2021 23:00-5,10
17/01/2021 00:00-5,70
17/01/2021 01:00-6,10
17/01/2021 02:00-6,40
17/01/2021 03:00-6,85
17/01/2021 04:00-7,10
17/01/2021 05:00-7,15
17/01/2021 06:00-7,40
17/01/2021 07:00-7,40
17/01/2021 08:00-7,50
17/01/2021 09:00-6,80
17/01/2021 10:00-3,50
17/01/2021 11:00-0,55
17/01/2021 12:003,20
17/01/2021 13:004,60
17/01/2021 14:006,25
17/01/2021 15:007,25
17/01/2021 16:006,65
17/01/2021 17:005,95
17/01/2021 18:003,70
17/01/2021 19:001,05
17/01/2021 20:00-0,70
17/01/2021 21:00-1,50
17/01/2021 22:00-1,90
17/01/2021 23:00-2,60
18/01/2021 00:00-2,80
18/01/2021 01:00-3,30
18/01/2021 02:00-2,95
18/01/2021 03:00-3,50
18/01/2021 04:00-3,70
18/01/2021 05:00-3,80
18/01/2021 06:00-4,25
18/01/2021 07:00-5,05
18/01/2021 08:00-5,55
18/01/2021 09:00-5,25
18/01/2021 10:00-3,25
18/01/2021 11:001,90
18/01/2021 12:005,05
18/01/2021 13:006,85
18/01/2021 14:008,10
18/01/2021 15:008,25
18/01/2021 16:007,45
18/01/2021 17:003,65
18/01/2021 18:001,70
18/01/2021 19:001,00
18/01/2021 20:000,25
18/01/2021 21:00-0,30
18/01/2021 22:00-0,95
18/01/2021 23:00-0,95
19/01/2021 00:00-1,85
19/01/2021 01:00-2,80
19/01/2021 02:00-3,70
19/01/2021 03:00-3,65
19/01/2021 04:00-4,35
19/01/2021 05:00-4,90
19/01/2021 06:00-5,30
19/01/2021 07:00-5,60
19/01/2021 08:00-5,60
19/01/2021 09:00-4,65
19/01/2021 10:00-0,55
19/01/2021 11:004,50
19/01/2021 12:004,55
19/01/2021 13:005,15
19/01/2021 14:007,70
19/01/2021 15:007,90
19/01/2021 16:005,95
19/01/2021 17:004,60
19/01/2021 18:003,55
19/01/2021 19:003,35
19/01/2021 20:004,00
19/01/2021 21:001,65
19/01/2021 22:002,90
19/01/2021 23:003,20
20/01/2021 00:002,90
20/01/2021 01:003,25
20/01/2021 02:003,45
20/01/2021 03:003,25
20/01/2021 04:002,65
20/01/2021 05:001,90
20/01/2021 06:001,45
20/01/2021 07:001,20
20/01/2021 08:001,30
20/01/2021 09:001,20
20/01/2021 10:001,90
20/01/2021 11:003,70
20/01/2021 12:003,80
20/01/2021 13:004,15
20/01/2021 14:005,20
20/01/2021 15:006,30
20/01/2021 16:006,30
20/01/2021 17:006,65
20/01/2021 18:006,80
20/01/2021 19:006,60
20/01/2021 20:006,20
20/01/2021 21:006,15
20/01/2021 22:006,05
20/01/2021 23:006,05
21/01/2021 00:006,00
21/01/2021 01:005,90
21/01/2021 02:006,10
21/01/2021 03:006,05
21/01/2021 04:006,00
21/01/2021 05:005,70
21/01/2021 06:005,70
21/01/2021 07:005,25
21/01/2021 08:004,95
21/01/2021 09:005,60
21/01/2021 10:006,10
21/01/2021 11:006,40
21/01/2021 12:006,80
21/01/2021 13:007,10
21/01/2021 14:007,35
21/01/2021 15:007,75
21/01/2021 16:007,70
21/01/2021 17:007,85
21/01/2021 18:007,70
21/01/2021 19:007,15
21/01/2021 20:006,50
21/01/2021 21:006,40
21/01/2021 22:006,30
21/01/2021 23:006,30
22/01/2021 00:006,15
22/01/2021 01:006,80
22/01/2021 02:006,65
22/01/2021 03:005,15
22/01/2021 04:005,00
22/01/2021 05:003,80
22/01/2021 06:003,10
22/01/2021 07:003,40
22/01/2021 08:002,75
22/01/2021 09:002,90
22/01/2021 10:003,90
22/01/2021 11:004,40
22/01/2021 12:006,15
22/01/2021 13:007,50
22/01/2021 14:007,15
22/01/2021 15:006,60
22/01/2021 16:005,75
22/01/2021 17:005,20
22/01/2021 18:003,80
22/01/2021 19:003,70
22/01/2021 20:002,35
22/01/2021 21:001,50
22/01/2021 22:002,70
22/01/2021 23:002,95
23/01/2021 00:002,40
23/01/2021 01:001,95
23/01/2021 02:001,85
23/01/2021 03:002,25
23/01/2021 04:002,30
23/01/2021 05:002,40
23/01/2021 06:002,35
23/01/2021 07:002,00
23/01/2021 08:002,30
23/01/2021 09:002,30
23/01/2021 10:003,10
23/01/2021 11:002,90
23/01/2021 12:003,30
23/01/2021 13:003,55
23/01/2021 14:003,60
23/01/2021 15:004,60
23/01/2021 16:005,80
23/01/2021 17:006,00
23/01/2021 18:006,10
23/01/2021 19:006,20
23/01/2021 20:006,60
23/01/2021 21:006,75
23/01/2021 22:006,10
23/01/2021 23:005,50
24/01/2021 00:004,80
24/01/2021 01:004,80
24/01/2021 02:003,60
24/01/2021 03:002,35
24/01/2021 04:001,50
24/01/2021 05:000,75
24/01/2021 06:000,10
24/01/2021 07:00-0,45
24/01/2021 08:00-1,30
24/01/2021 09:000,10
24/01/2021 10:002,75
24/01/2021 11:005,45
24/01/2021 12:006,00
24/01/2021 13:005,95
24/01/2021 14:006,15
24/01/2021 15:005,85
24/01/2021 16:006,85
24/01/2021 17:006,25
24/01/2021 18:006,20
24/01/2021 19:006,20
24/01/2021 20:005,80
24/01/2021 21:005,70
24/01/2021 22:005,10
24/01/2021 23:004,80
25/01/2021 00:005,10
25/01/2021 01:004,55
25/01/2021 02:004,30
25/01/2021 03:004,15
25/01/2021 04:003,55
25/01/2021 05:003,20
25/01/2021 06:002,90
25/01/2021 07:002,80
25/01/2021 08:002,85
25/01/2021 09:002,95
25/01/2021 10:003,65
25/01/2021 11:004,30
25/01/2021 12:005,45
25/01/2021 13:006,60
25/01/2021 14:007,25
25/01/2021 15:007,25
25/01/2021 16:007,35
25/01/2021 17:006,90
25/01/2021 18:005,10
25/01/2021 19:003,05
25/01/2021 20:002,10
25/01/2021 21:001,00
25/01/2021 22:001,20
25/01/2021 23:000,40
26/01/2021 00:000,40
26/01/2021 01:000,75
26/01/2021 02:001,10
26/01/2021 03:000,25
26/01/2021 04:000,05
26/01/2021 05:00-0,60
26/01/2021 06:00-1,25
26/01/2021 07:00-1,30
26/01/2021 08:00-1,45
26/01/2021 09:00-0,90
26/01/2021 10:001,95
26/01/2021 11:004,35
26/01/2021 12:005,60
26/01/2021 13:008,85
26/01/2021 14:008,95
26/01/2021 15:009,40
26/01/2021 16:009,30
26/01/2021 17:009,35
26/01/2021 18:008,10
26/01/2021 19:006,50
26/01/2021 20:006,05
26/01/2021 21:006,20
26/01/2021 22:006,10
26/01/2021 23:005,40
27/01/2021 00:003,90
27/01/2021 01:003,55
27/01/2021 02:003,75
27/01/2021 03:004,05
27/01/2021 04:004,30
27/01/2021 05:003,95
27/01/2021 06:003,10
27/01/2021 07:002,40
27/01/2021 08:002,45
27/01/2021 09:003,05
27/01/2021 10:005,40
27/01/2021 11:006,65
27/01/2021 12:0010,25
27/01/2021 13:0012,40
27/01/2021 14:0014,10
27/01/2021 15:0014,45
27/01/2021 16:0015,65
27/01/2021 17:0014,45
27/01/2021 18:0013,25
27/01/2021 19:0011,65
27/01/2021 20:0010,30
27/01/2021 21:0010,25
27/01/2021 22:009,45
27/01/2021 23:008,90
28/01/2021 00:008,30
28/01/2021 01:008,90
28/01/2021 02:008,55
28/01/2021 03:005,25
28/01/2021 04:005,00
28/01/2021 05:005,00
28/01/2021 06:004,75
28/01/2021 07:002,95
28/01/2021 08:003,90
28/01/2021 09:006,65
28/01/2021 10:008,30
28/01/2021 11:009,55
28/01/2021 12:0011,45
28/01/2021 13:0012,00
28/01/2021 14:0012,20
28/01/2021 15:0012,25
28/01/2021 16:0011,95
28/01/2021 17:0011,65
28/01/2021 18:0011,70
28/01/2021 19:0011,80
28/01/2021 20:0011,55
28/01/2021 21:0010,90
28/01/2021 22:0010,90
28/01/2021 23:0010,70
29/01/2021 00:0010,10
29/01/2021 01:009,70
29/01/2021 02:009,95
29/01/2021 03:009,85
29/01/2021 04:009,60
29/01/2021 05:009,45
29/01/2021 06:009,40
29/01/2021 07:009,15
29/01/2021 08:008,40
29/01/2021 09:008,80
29/01/2021 10:009,90
29/01/2021 11:0010,15
29/01/2021 12:0011,10
29/01/2021 13:0011,55
29/01/2021 14:0012,50
29/01/2021 15:0012,25
29/01/2021 16:0011,90
29/01/2021 17:0011,90
29/01/2021 18:0011,45
29/01/2021 19:0010,60
29/01/2021 20:0010,50
29/01/2021 21:0010,40
29/01/2021 22:0010,35
29/01/2021 23:009,60
30/01/2021 00:009,35
30/01/2021 01:008,95
30/01/2021 02:008,35
30/01/2021 03:008,25
30/01/2021 04:007,45
30/01/2021 05:006,80
30/01/2021 06:006,60
30/01/2021 07:006,00
30/01/2021 08:005,70
30/01/2021 09:005,75
30/01/2021 10:005,75
30/01/2021 11:006,55
30/01/2021 12:007,55
30/01/2021 13:007,15
30/01/2021 14:006,15
30/01/2021 15:005,70
30/01/2021 16:005,45
30/01/2021 17:005,70
30/01/2021 18:005,70
30/01/2021 19:005,10
30/01/2021 20:004,20
30/01/2021 21:003,80
30/01/2021 22:003,45
30/01/2021 23:003,60
31/01/2021 00:002,95
31/01/2021 01:001,10
31/01/2021 02:000,45
31/01/2021 03:000,30
31/01/2021 04:00-0,30
31/01/2021 05:00-0,50
31/01/2021 06:000,20
31/01/2021 07:000,30
31/01/2021 08:001,00
31/01/2021 09:001,90
31/01/2021 10:004,45
31/01/2021 11:007,60
31/01/2021 12:009,55
31/01/2021 13:0010,95
31/01/2021 14:0012,90
31/01/2021 15:0013,90
31/01/2021 16:0013,35
31/01/2021 17:0012,50
31/01/2021 18:0011,50
31/01/2021 19:0010,60
31/01/2021 20:009,90
31/01/2021 21:009,30
31/01/2021 22:008,85
31/01/2021 23:008,70
01/02/2021 00:008,30
01/02/2021 01:007,70
01/02/2021 02:006,10
01/02/2021 03:005,50
01/02/2021 04:005,80
01/02/2021 05:006,40
01/02/2021 06:006,95
01/02/2021 07:007,70
01/02/2021 08:004,65
01/02/2021 09:005,40
01/02/2021 10:0012,00
01/02/2021 11:0015,55
01/02/2021 12:0015,60
01/02/2021 13:0015,70
01/02/2021 14:0014,60
01/02/2021 15:0013,10
01/02/2021 16:0012,40
01/02/2021 17:0012,00
01/02/2021 18:0011,30
01/02/2021 19:0010,85
01/02/2021 20:009,55
01/02/2021 21:008,60
01/02/2021 22:008,70
01/02/2021 23:008,30
02/02/2021 00:008,20
02/02/2021 01:007,90
02/02/2021 02:008,05
02/02/2021 03:008,20
02/02/2021 04:007,90
02/02/2021 05:008,20
02/02/2021 06:008,35
02/02/2021 07:008,20
02/02/2021 08:007,70
02/02/2021 09:007,85
02/02/2021 10:008,35
02/02/2021 11:008,20
02/02/2021 12:008,10
02/02/2021 13:008,30
02/02/2021 14:008,10
02/02/2021 15:008,40
02/02/2021 16:008,30
02/02/2021 17:008,00
02/02/2021 18:007,90
02/02/2021 19:007,85
02/02/2021 20:007,70
02/02/2021 21:007,70
02/02/2021 22:007,45
02/02/2021 23:007,50
03/02/2021 00:007,20
03/02/2021 01:007,00
03/02/2021 02:006,80
03/02/2021 03:006,80
03/02/2021 04:007,10
03/02/2021 05:007,20
03/02/2021 06:007,75
03/02/2021 07:007,95
03/02/2021 08:007,10
03/02/2021 09:006,80
03/02/2021 10:007,10
03/02/2021 11:008,80
03/02/2021 12:009,25
03/02/2021 13:009,10
03/02/2021 14:0010,40
03/02/2021 15:0010,35
03/02/2021 16:0010,10
03/02/2021 17:009,50
03/02/2021 18:008,80
03/02/2021 19:008,15
03/02/2021 20:007,55
03/02/2021 21:007,50
03/02/2021 22:007,20
03/02/2021 23:006,90
04/02/2021 00:006,60
04/02/2021 01:006,30
04/02/2021 02:006,20
04/02/2021 03:005,55
04/02/2021 04:005,05
04/02/2021 05:004,80
04/02/2021 06:005,00
04/02/2021 07:004,45
04/02/2021 08:005,00
04/02/2021 09:005,45
04/02/2021 10:006,85
04/02/2021 11:007,25
04/02/2021 12:007,20
04/02/2021 13:006,95
04/02/2021 14:005,30
04/02/2021 15:004,70
04/02/2021 16:004,40
04/02/2021 17:004,00
04/02/2021 18:003,95
04/02/2021 19:003,80
04/02/2021 20:003,20
04/02/2021 21:002,35
04/02/2021 22:002,80
04/02/2021 23:002,95
05/02/2021 00:003,40
05/02/2021 01:003,50
05/02/2021 02:003,60
05/02/2021 03:003,50
05/02/2021 04:003,60
05/02/2021 05:003,95
05/02/2021 06:004,00
05/02/2021 07:004,10
05/02/2021 08:004,10
05/02/2021 09:004,40
05/02/2021 10:004,80
05/02/2021 11:005,10
05/02/2021 12:005,65
05/02/2021 13:006,30
05/02/2021 14:008,45
05/02/2021 15:0010,05
05/02/2021 16:008,20
05/02/2021 17:007,90
05/02/2021 18:006,90
05/02/2021 19:006,85
05/02/2021 20:007,20
05/02/2021 21:006,10
05/02/2021 22:006,10
05/02/2021 23:006,10
06/02/2021 00:006,00
06/02/2021 01:005,55
06/02/2021 02:005,20
06/02/2021 03:004,85
06/02/2021 04:004,80
06/02/2021 05:004,50
06/02/2021 06:004,20
06/02/2021 07:004,10
06/02/2021 08:004,00
06/02/2021 09:004,05
06/02/2021 10:004,30
06/02/2021 11:004,40
06/02/2021 12:004,60
06/02/2021 13:004,95
06/02/2021 14:004,70
06/02/2021 15:004,50
06/02/2021 16:004,40
06/02/2021 17:004,40
06/02/2021 18:003,55
06/02/2021 19:003,00
06/02/2021 20:002,35
06/02/2021 21:002,00
06/02/2021 22:001,85
06/02/2021 23:000,95
07/02/2021 00:00-0,15
07/02/2021 01:00-0,50
07/02/2021 02:00-0,85
07/02/2021 03:00-1,80
07/02/2021 04:00-2,45
07/02/2021 05:00-2,70
07/02/2021 06:00-3,05
07/02/2021 07:00-3,60
07/02/2021 08:00-3,50
07/02/2021 09:00-2,60
07/02/2021 10:00-1,05
07/02/2021 11:001,30
07/02/2021 12:003,00
07/02/2021 13:003,95
07/02/2021 14:004,40
07/02/2021 15:004,25
07/02/2021 16:003,70
07/02/2021 17:003,10
07/02/2021 18:002,40
07/02/2021 19:002,50
07/02/2021 20:002,45
07/02/2021 21:002,50
07/02/2021 22:002,50
07/02/2021 23:002,45
08/02/2021 00:002,10
08/02/2021 01:001,80
08/02/2021 02:001,75
08/02/2021 03:002,20
08/02/2021 04:002,90
08/02/2021 05:002,90
08/02/2021 06:003,50
08/02/2021 07:003,40
08/02/2021 08:003,25
08/02/2021 09:004,25
08/02/2021 10:004,55
08/02/2021 11:004,75
08/02/2021 12:005,65
08/02/2021 13:006,60
08/02/2021 14:006,85
08/02/2021 15:006,20
08/02/2021 16:006,40
08/02/2021 17:006,65
08/02/2021 18:005,30
08/02/2021 19:004,50
08/02/2021 20:003,90
08/02/2021 21:003,05
08/02/2021 22:002,05
08/02/2021 23:003,95
09/02/2021 00:003,45
09/02/2021 01:003,30
09/02/2021 02:004,15
09/02/2021 03:003,55
09/02/2021 04:003,05
09/02/2021 05:002,80
09/02/2021 06:003,45
09/02/2021 07:003,85
09/02/2021 08:004,55
09/02/2021 09:005,15
09/02/2021 10:005,20
09/02/2021 11:005,25
09/02/2021 12:004,10
09/02/2021 13:004,55
09/02/2021 14:004,40
09/02/2021 15:004,90
09/02/2021 16:004,50
09/02/2021 17:004,20
09/02/2021 18:003,80
09/02/2021 19:003,70
09/02/2021 20:003,05
09/02/2021 21:002,45
09/02/2021 22:002,30
09/02/2021 23:002,30
10/02/2021 00:002,30
10/02/2021 01:002,00
10/02/2021 02:001,95
10/02/2021 03:000,30
10/02/2021 04:001,15
10/02/2021 05:000,70
10/02/2021 06:00-0,15
10/02/2021 07:00-0,50
10/02/2021 08:00-0,70
10/02/2021 09:000,95
10/02/2021 10:002,80
10/02/2021 11:005,30
10/02/2021 12:006,35
10/02/2021 13:007,85
10/02/2021 14:008,55
10/02/2021 15:008,90
10/02/2021 16:008,80
10/02/2021 17:008,70
10/02/2021 18:007,30
10/02/2021 19:006,30
10/02/2021 20:006,10
10/02/2021 21:005,05
10/02/2021 22:004,75
10/02/2021 23:003,45
11/02/2021 00:003,00
11/02/2021 01:005,20
11/02/2021 02:005,40
11/02/2021 03:005,05
11/02/2021 04:004,95
11/02/2021 05:004,55
11/02/2021 06:004,60
11/02/2021 07:004,60
11/02/2021 08:004,80
11/02/2021 09:005,40
11/02/2021 10:007,50
11/02/2021 11:008,35
11/02/2021 12:008,55
11/02/2021 13:009,35
11/02/2021 14:009,20
11/02/2021 15:009,80
11/02/2021 16:0010,10
11/02/2021 17:0010,00
11/02/2021 18:009,15
11/02/2021 19:008,40
11/02/2021 20:009,40
11/02/2021 21:009,70
11/02/2021 22:009,50
11/02/2021 23:009,50
12/02/2021 00:009,30
12/02/2021 01:008,95
12/02/2021 02:008,90
12/02/2021 03:008,70
12/02/2021 04:008,30
12/02/2021 05:007,40
12/02/2021 06:007,15
12/02/2021 07:007,30
12/02/2021 08:006,70
12/02/2021 09:006,40
12/02/2021 10:006,70
12/02/2021 11:007,90
12/02/2021 12:0010,45
12/02/2021 13:0010,40
12/02/2021 14:0011,25
12/02/2021 15:0010,45
12/02/2021 16:0010,20
12/02/2021 17:009,90
12/02/2021 18:008,00
12/02/2021 19:006,05
12/02/2021 20:003,95
12/02/2021 21:003,45
12/02/2021 22:004,05
12/02/2021 23:003,90
13/02/2021 00:002,20
13/02/2021 01:001,10
13/02/2021 02:000,90
13/02/2021 03:000,90
13/02/2021 04:001,45
13/02/2021 05:001,90
13/02/2021 06:001,75
13/02/2021 07:001,40
13/02/2021 08:001,45
13/02/2021 09:002,00
13/02/2021 10:003,15
13/02/2021 11:004,30
13/02/2021 12:007,30
13/02/2021 13:009,80
13/02/2021 14:009,75
13/02/2021 15:0010,70
13/02/2021 16:0010,00
13/02/2021 17:009,80
13/02/2021 18:008,55
13/02/2021 19:005,65
13/02/2021 20:004,65
13/02/2021 21:003,70
13/02/2021 22:002,45
13/02/2021 23:002,10
14/02/2021 00:001,65
14/02/2021 01:000,80
14/02/2021 02:000,35
14/02/2021 03:00-0,40
14/02/2021 04:00-0,40
14/02/2021 05:00-0,20
14/02/2021 06:00-0,15
14/02/2021 07:00-1,00
14/02/2021 08:00-1,05
14/02/2021 09:001,00
14/02/2021 10:005,30
14/02/2021 11:006,85
14/02/2021 12:007,35
14/02/2021 13:008,95
14/02/2021 14:0010,80
14/02/2021 15:0011,55
14/02/2021 16:0011,40
14/02/2021 17:0010,80
14/02/2021 18:009,30
14/02/2021 19:008,05
14/02/2021 20:008,35
14/02/2021 21:006,85
14/02/2021 22:004,30
14/02/2021 23:003,30
15/02/2021 00:002,55
15/02/2021 01:002,30
15/02/2021 02:001,75
15/02/2021 03:001,35
15/02/2021 04:002,55
15/02/2021 05:003,65
15/02/2021 06:004,45
15/02/2021 07:002,40
15/02/2021 08:002,00
15/02/2021 09:003,10
15/02/2021 10:006,00
15/02/2021 11:0010,30
15/02/2021 12:0011,45
15/02/2021 13:0012,05
15/02/2021 14:0012,00
15/02/2021 15:0011,90
15/02/2021 16:0012,05
15/02/2021 17:0012,05
15/02/2021 18:0011,50
15/02/2021 19:008,45
15/02/2021 20:006,50
15/02/2021 21:008,40
15/02/2021 22:007,20
15/02/2021 23:005,80
16/02/2021 00:004,45
16/02/2021 01:004,30
16/02/2021 02:002,55
16/02/2021 03:001,20
16/02/2021 04:000,55
16/02/2021 05:00-0,10
16/02/2021 06:00-0,10
16/02/2021 07:004,45
16/02/2021 08:005,70
16/02/2021 09:006,75
16/02/2021 10:007,55
16/02/2021 11:008,85
16/02/2021 12:009,15
16/02/2021 13:008,30
16/02/2021 14:008,40
16/02/2021 15:009,00
16/02/2021 16:008,55
16/02/2021 17:007,90
16/02/2021 18:007,65
16/02/2021 19:007,40
16/02/2021 20:006,35
16/02/2021 21:005,95
16/02/2021 22:006,65
16/02/2021 23:005,75
17/02/2021 00:005,80
17/02/2021 01:003,90
17/02/2021 02:002,85
17/02/2021 03:002,75
17/02/2021 04:002,30
17/02/2021 05:002,55
17/02/2021 06:003,45
17/02/2021 07:003,25
17/02/2021 08:004,95
17/02/2021 09:005,65
17/02/2021 10:006,25
17/02/2021 11:007,35
17/02/2021 12:008,30
17/02/2021 13:009,40
17/02/2021 14:009,90
17/02/2021 15:0010,30
17/02/2021 16:0010,10
17/02/2021 17:009,55
17/02/2021 18:008,90
17/02/2021 19:008,90
17/02/2021 20:008,85
17/02/2021 21:008,85
17/02/2021 22:008,75
17/02/2021 23:008,65
18/02/2021 00:008,90
18/02/2021 01:008,95
18/02/2021 02:008,50
18/02/2021 03:007,95
18/02/2021 04:007,85
18/02/2021 05:007,70
18/02/2021 06:007,60
18/02/2021 07:007,25
18/02/2021 08:007,10
18/02/2021 09:006,90
18/02/2021 10:006,65
18/02/2021 11:006,60
18/02/2021 12:006,95
18/02/2021 13:008,00
18/02/2021 14:008,40
18/02/2021 15:008,90
18/02/2021 16:009,70
18/02/2021 17:009,50
18/02/2021 18:008,75
18/02/2021 19:008,30
18/02/2021 20:007,90
18/02/2021 21:007,45
18/02/2021 22:007,20
18/02/2021 23:007,20
19/02/2021 00:007,20
19/02/2021 01:007,15
19/02/2021 02:007,25
19/02/2021 03:007,20
19/02/2021 04:006,95
19/02/2021 05:006,80
19/02/2021 06:006,90
19/02/2021 07:007,20
19/02/2021 08:007,40
19/02/2021 09:007,70
19/02/2021 10:007,80
19/02/2021 11:007,40
19/02/2021 12:008,05
19/02/2021 13:0010,40
19/02/2021 14:0012,25
19/02/2021 15:0012,40
19/02/2021 16:0011,80
19/02/2021 17:0010,80
19/02/2021 18:009,95
19/02/2021 19:008,35
19/02/2021 20:007,95
19/02/2021 21:007,80
19/02/2021 22:007,25
19/02/2021 23:006,65
20/02/2021 00:006,15
20/02/2021 01:006,35
20/02/2021 02:006,85
20/02/2021 03:007,30
20/02/2021 04:007,80
20/02/2021 05:007,30
20/02/2021 06:007,10
20/02/2021 07:006,70
20/02/2021 08:006,80
20/02/2021 09:007,95
20/02/2021 10:009,05
20/02/2021 11:0010,10
20/02/2021 12:0011,25
20/02/2021 13:0011,05
20/02/2021 14:0010,95
20/02/2021 15:0011,05
20/02/2021 16:0011,15
20/02/2021 17:0010,75
20/02/2021 18:0010,85
20/02/2021 19:0010,55
20/02/2021 20:0010,50
20/02/2021 21:0010,60
20/02/2021 22:009,60
20/02/2021 23:009,50
21/02/2021 00:009,45
21/02/2021 01:0010,00
21/02/2021 02:008,85
21/02/2021 03:008,70
21/02/2021 04:008,55
21/02/2021 05:008,35
21/02/2021 06:007,90
21/02/2021 07:007,70
21/02/2021 08:007,60
21/02/2021 09:007,40
21/02/2021 10:008,40
21/02/2021 11:008,60
21/02/2021 12:008,95
21/02/2021 13:009,40
21/02/2021 14:008,10
21/02/2021 15:007,60
21/02/2021 16:007,30
21/02/2021 17:006,65
21/02/2021 18:006,15
21/02/2021 19:005,90
21/02/2021 20:005,30
21/02/2021 21:004,75
21/02/2021 22:003,20
21/02/2021 23:003,20
22/02/2021 00:003,30
22/02/2021 01:002,95
22/02/2021 02:003,15
22/02/2021 03:002,80
22/02/2021 04:003,05
22/02/2021 05:002,90
22/02/2021 06:002,70
22/02/2021 07:002,00
22/02/2021 08:001,95
22/02/2021 09:002,90
22/02/2021 10:005,10
22/02/2021 11:006,15
22/02/2021 12:007,20
22/02/2021 13:009,20
22/02/2021 14:008,65
22/02/2021 15:007,90
22/02/2021 16:008,60
22/02/2021 17:008,15
22/02/2021 18:007,65
22/02/2021 19:005,00
22/02/2021 20:003,00
22/02/2021 21:001,45
22/02/2021 22:000,35
22/02/2021 23:00-0,40
23/02/2021 00:00-0,90
23/02/2021 01:00-1,15
23/02/2021 02:00-1,45
23/02/2021 03:00-1,80
23/02/2021 04:00-2,35
23/02/2021 05:00-2,95
23/02/2021 06:00-3,15
23/02/2021 07:00-3,30
23/02/2021 08:00-3,10
23/02/2021 09:00-0,15
23/02/2021 10:006,35
23/02/2021 11:007,90
23/02/2021 12:008,80
23/02/2021 13:0010,20
23/02/2021 14:0010,85
23/02/2021 15:0011,35
23/02/2021 16:0011,15
23/02/2021 17:0010,95
23/02/2021 18:009,70
23/02/2021 19:006,65
23/02/2021 20:003,05
23/02/2021 21:001,95
23/02/2021 22:001,00
23/02/2021 23:000,50
24/02/2021 00:001,50
24/02/2021 01:004,95
24/02/2021 02:002,75
24/02/2021 03:002,10
24/02/2021 04:004,05
24/02/2021 05:004,60
24/02/2021 06:004,25
24/02/2021 07:004,05
24/02/2021 08:004,40
24/02/2021 09:006,25
24/02/2021 10:007,40
24/02/2021 11:009,10
24/02/2021 12:0010,70
24/02/2021 13:0011,60
24/02/2021 14:0012,20
24/02/2021 15:0012,65
24/02/2021 16:0012,50
24/02/2021 17:0013,00
24/02/2021 18:0011,80
24/02/2021 19:0010,55
24/02/2021 20:0010,20
24/02/2021 21:009,60
24/02/2021 22:007,70
24/02/2021 23:007,55
25/02/2021 00:008,10
25/02/2021 01:006,80
25/02/2021 02:005,05
25/02/2021 03:004,00
25/02/2021 04:003,05
25/02/2021 05:002,35
25/02/2021 06:001,45
25/02/2021 07:001,40
25/02/2021 08:001,40
25/02/2021 09:003,10
25/02/2021 10:005,50
25/02/2021 11:009,00
25/02/2021 12:009,30
25/02/2021 13:009,90
25/02/2021 14:0010,95
25/02/2021 15:0011,05
25/02/2021 16:0010,30
25/02/2021 17:0010,20
25/02/2021 18:009,00
25/02/2021 19:007,90
25/02/2021 20:007,05
25/02/2021 21:006,25
25/02/2021 22:004,50
25/02/2021 23:003,45
26/02/2021 00:002,90
26/02/2021 01:002,35
26/02/2021 02:002,20
26/02/2021 03:002,60
26/02/2021 04:002,40
26/02/2021 05:002,00
26/02/2021 06:001,40
26/02/2021 07:000,90
26/02/2021 08:000,80
26/02/2021 09:002,60
26/02/2021 10:006,75
26/02/2021 11:007,80
26/02/2021 12:008,95
26/02/2021 13:009,85
26/02/2021 14:0010,70
26/02/2021 15:0010,65
26/02/2021 16:0010,05
26/02/2021 17:009,70
26/02/2021 18:008,05
26/02/2021 19:006,55
26/02/2021 20:006,05
26/02/2021 21:003,30
26/02/2021 22:001,75
26/02/2021 23:001,00
27/02/2021 00:000,65
27/02/2021 01:000,15
27/02/2021 02:00-0,25
27/02/2021 03:00-0,70
27/02/2021 04:00-1,20
27/02/2021 05:00-1,50
27/02/2021 06:00-1,95
27/02/2021 07:00-2,30
27/02/2021 08:00-2,25
27/02/2021 09:000,25
27/02/2021 10:005,15
27/02/2021 11:008,95
27/02/2021 12:0010,30
27/02/2021 13:0011,90
27/02/2021 14:0012,75
27/02/2021 15:0013,85
27/02/2021 16:0013,50
27/02/2021 17:0012,55
27/02/2021 18:0010,45
27/02/2021 19:006,40
27/02/2021 20:003,40
27/02/2021 21:002,30
27/02/2021 22:001,30
27/02/2021 23:000,20
28/02/2021 00:00-1,00
28/02/2021 01:00-1,55
28/02/2021 02:00-2,60
28/02/2021 03:00-2,95
28/02/2021 04:00-3,80
28/02/2021 05:00-3,85
28/02/2021 06:00-4,00
28/02/2021 07:00-5,00
28/02/2021 08:00-4,05
28/02/2021 09:00-1,05
28/02/2021 10:003,50
28/02/2021 11:004,50
28/02/2021 12:005,15
28/02/2021 13:006,80
28/02/2021 14:006,75
28/02/2021 15:007,50
28/02/2021 16:005,95
28/02/2021 17:006,70
28/02/2021 18:005,65
28/02/2021 19:005,25
28/02/2021 20:005,55
28/02/2021 21:005,50
28/02/2021 22:005,30
28/02/2021 23:005,20
01/03/2021 00:005,00
01/03/2021 01:005,20
01/03/2021 02:005,80
01/03/2021 03:004,65
01/03/2021 04:004,45
01/03/2021 05:004,15
01/03/2021 06:004,25
01/03/2021 07:004,20
01/03/2021 08:004,00
01/03/2021 09:004,85
01/03/2021 10:006,30
01/03/2021 11:007,70
01/03/2021 12:007,70
01/03/2021 13:008,60
01/03/2021 14:009,30
01/03/2021 15:009,95
01/03/2021 16:0010,50
01/03/2021 17:009,70
01/03/2021 18:009,00
01/03/2021 19:008,25
01/03/2021 20:007,85
01/03/2021 21:007,50
01/03/2021 22:007,20
01/03/2021 23:006,85
02/03/2021 00:006,60
02/03/2021 01:006,60
02/03/2021 02:006,40
02/03/2021 03:006,30
02/03/2021 04:006,20
02/03/2021 05:006,20
02/03/2021 06:006,05
02/03/2021 07:006,00
02/03/2021 08:006,00
02/03/2021 09:006,15
02/03/2021 10:006,50
02/03/2021 11:007,20
02/03/2021 12:007,30
02/03/2021 13:008,55
02/03/2021 14:009,90
02/03/2021 15:0010,35
02/03/2021 16:0010,25
02/03/2021 17:008,85
02/03/2021 18:008,90
02/03/2021 19:008,40
02/03/2021 20:007,45
02/03/2021 21:006,85
02/03/2021 22:007,10
02/03/2021 23:006,55
03/03/2021 00:006,10
03/03/2021 01:006,20
03/03/2021 02:005,90
03/03/2021 03:005,80
03/03/2021 04:006,10
03/03/2021 05:005,35
03/03/2021 06:003,95
03/03/2021 07:004,15
03/03/2021 08:005,00
03/03/2021 09:006,25
03/03/2021 10:006,80
03/03/2021 11:008,00
03/03/2021 12:0010,10
03/03/2021 13:0011,00
03/03/2021 14:0012,40
03/03/2021 15:0013,00
03/03/2021 16:0013,00
03/03/2021 17:0012,65
03/03/2021 18:0011,85
03/03/2021 19:007,65
03/03/2021 20:005,15
03/03/2021 21:003,75
03/03/2021 22:002,85
03/03/2021 23:002,00
04/03/2021 00:001,50
04/03/2021 01:000,80
04/03/2021 02:000,35
04/03/2021 03:000,35
04/03/2021 04:00-0,35
04/03/2021 05:00-0,40
04/03/2021 06:00-0,50
04/03/2021 07:00-0,25
04/03/2021 08:000,25
04/03/2021 09:003,60
04/03/2021 10:007,40
04/03/2021 11:009,80
04/03/2021 12:0012,25
04/03/2021 13:0014,25
04/03/2021 14:0014,75
04/03/2021 15:0014,65
04/03/2021 16:0014,05
04/03/2021 17:0011,05
04/03/2021 18:0010,40
04/03/2021 19:008,25
04/03/2021 20:006,40
04/03/2021 21:004,50
04/03/2021 22:003,40
04/03/2021 23:002,35
05/03/2021 00:001,85
05/03/2021 01:001,70
05/03/2021 02:001,45
05/03/2021 03:001,20
05/03/2021 04:000,65
05/03/2021 05:000,65
05/03/2021 06:001,10
05/03/2021 07:000,45
05/03/2021 08:000,35
05/03/2021 09:003,95
05/03/2021 10:008,90
05/03/2021 11:0010,95
05/03/2021 12:0011,35
05/03/2021 13:0011,10
05/03/2021 14:0011,55
05/03/2021 15:0010,80
05/03/2021 16:0010,65
05/03/2021 17:009,00
05/03/2021 18:007,65
05/03/2021 19:006,10
05/03/2021 20:005,35
05/03/2021 21:004,10
05/03/2021 22:003,80
05/03/2021 23:002,60
06/03/2021 00:000,05
06/03/2021 01:00-1,10
06/03/2021 02:00-1,95
06/03/2021 03:00-2,50
06/03/2021 04:00-2,80
06/03/2021 05:00-2,80
06/03/2021 06:00-3,50
06/03/2021 07:00-3,70
06/03/2021 08:00-2,65
06/03/2021 09:000,65
06/03/2021 10:004,80
06/03/2021 11:006,15
06/03/2021 12:006,60
06/03/2021 13:007,40
06/03/2021 14:007,90
06/03/2021 15:008,45
06/03/2021 16:008,70
06/03/2021 17:008,25
06/03/2021 18:006,95
06/03/2021 19:004,25
06/03/2021 20:002,55
06/03/2021 21:000,75
06/03/2021 22:00-0,45
06/03/2021 23:00-1,40
07/03/2021 00:00-0,75
07/03/2021 01:00-0,25
07/03/2021 02:00-0,20
07/03/2021 03:000,60
07/03/2021 04:001,00
07/03/2021 05:001,70
07/03/2021 06:001,75
07/03/2021 07:001,70
07/03/2021 08:001,95
07/03/2021 09:002,40
07/03/2021 10:003,30
07/03/2021 11:004,65
07/03/2021 12:006,70
07/03/2021 13:007,05
07/03/2021 14:007,45
07/03/2021 15:007,45
07/03/2021 16:006,90
07/03/2021 17:006,00
07/03/2021 18:004,65
07/03/2021 19:003,90
07/03/2021 20:003,40
07/03/2021 21:003,40
07/03/2021 22:002,95
07/03/2021 23:003,00
08/03/2021 00:002,80
08/03/2021 01:002,80
08/03/2021 02:002,50
08/03/2021 03:002,40
08/03/2021 04:002,35
08/03/2021 05:002,10
08/03/2021 06:001,85
08/03/2021 07:001,75
08/03/2021 08:001,85
08/03/2021 09:003,15
08/03/2021 10:004,00
08/03/2021 11:005,55
08/03/2021 12:005,55
08/03/2021 13:006,40
08/03/2021 14:004,95
08/03/2021 15:005,55
08/03/2021 16:004,70
08/03/2021 17:005,15
08/03/2021 18:004,20
08/03/2021 19:002,30
08/03/2021 20:001,00
08/03/2021 21:00-0,10
08/03/2021 22:00-1,45
08/03/2021 23:00-1,35
09/03/2021 00:00-1,65
09/03/2021 01:000,40
09/03/2021 02:00-0,75
09/03/2021 03:00-0,95
09/03/2021 04:00-0,20
09/03/2021 05:000,20
09/03/2021 06:000,20
09/03/2021 07:000,40
09/03/2021 08:001,05
09/03/2021 09:002,40
09/03/2021 10:003,25
09/03/2021 11:004,05
09/03/2021 12:004,10
09/03/2021 13:005,40
09/03/2021 14:004,80
09/03/2021 15:005,35
09/03/2021 16:005,65
09/03/2021 17:005,15
09/03/2021 18:004,15
09/03/2021 19:002,15
09/03/2021 20:00-0,35
09/03/2021 21:00-1,75
09/03/2021 22:00-2,30
09/03/2021 23:00-3,20
10/03/2021 00:00-3,85
10/03/2021 01:00-4,35
10/03/2021 02:00-4,75
10/03/2021 03:00-5,15
10/03/2021 04:00-5,25
10/03/2021 05:00-5,40
10/03/2021 06:00-5,40
10/03/2021 07:00-5,50
10/03/2021 08:00-4,00
10/03/2021 09:00-0,35
10/03/2021 10:003,80
10/03/2021 11:006,45
10/03/2021 12:009,25
10/03/2021 13:0011,55
10/03/2021 14:0012,55
10/03/2021 15:0014,00
10/03/2021 16:0014,05
10/03/2021 17:0013,60
10/03/2021 18:0011,95
10/03/2021 19:0011,20
10/03/2021 20:0010,55
10/03/2021 21:009,70
10/03/2021 22:009,20
10/03/2021 23:005,75
11/03/2021 00:004,00
11/03/2021 01:003,50
11/03/2021 02:007,00
11/03/2021 03:007,15
11/03/2021 04:006,95
11/03/2021 05:007,10
11/03/2021 06:007,15
11/03/2021 07:007,15
11/03/2021 08:007,25
11/03/2021 09:007,95
11/03/2021 10:009,60
11/03/2021 11:0010,05
11/03/2021 12:0011,95
11/03/2021 13:0012,70
11/03/2021 14:0012,75
11/03/2021 15:0013,10
11/03/2021 16:0012,65
11/03/2021 17:0012,30
11/03/2021 18:0011,60
11/03/2021 19:0011,20
11/03/2021 20:0010,75
11/03/2021 21:007,40
11/03/2021 22:006,20
11/03/2021 23:006,05
12/03/2021 00:006,30
12/03/2021 01:007,70
12/03/2021 02:007,20
12/03/2021 03:005,75
12/03/2021 04:005,00
12/03/2021 05:004,30
12/03/2021 06:003,80
12/03/2021 07:002,25
12/03/2021 08:003,35
12/03/2021 09:004,25
12/03/2021 10:007,00
12/03/2021 11:007,75
12/03/2021 12:009,60
12/03/2021 13:0010,95
12/03/2021 14:0011,50
12/03/2021 15:0011,85
12/03/2021 16:0011,75
12/03/2021 17:0010,55
12/03/2021 18:008,95
12/03/2021 19:006,30
12/03/2021 20:003,75
12/03/2021 21:002,55
12/03/2021 22:000,75
12/03/2021 23:00-0,25
13/03/2021 00:00-0,85
13/03/2021 01:00-1,10
13/03/2021 02:00-1,45
13/03/2021 03:00-2,35
13/03/2021 04:00-3,20
13/03/2021 05:00-3,75
13/03/2021 06:00-4,50
13/03/2021 07:00-5,00
13/03/2021 08:00-3,65
13/03/2021 09:000,05
13/03/2021 10:003,60
13/03/2021 11:006,05
13/03/2021 12:007,50
13/03/2021 13:0010,00
13/03/2021 14:0010,10
13/03/2021 15:0010,80
13/03/2021 16:0010,70
13/03/2021 17:0010,15
13/03/2021 18:009,15
13/03/2021 19:007,80
13/03/2021 20:006,50
13/03/2021 21:005,75
13/03/2021 22:004,25
13/03/2021 23:002,15
14/03/2021 00:000,95
14/03/2021 01:000,05
14/03/2021 02:00-0,40
14/03/2021 03:00-0,85
14/03/2021 04:00-0,10
14/03/2021 05:000,60
14/03/2021 06:000,85
14/03/2021 07:001,05
14/03/2021 08:001,70
14/03/2021 09:003,80
14/03/2021 10:006,45
14/03/2021 11:007,90
14/03/2021 12:008,90
14/03/2021 13:009,75
14/03/2021 14:0010,15
14/03/2021 15:0010,70
14/03/2021 16:0010,70
14/03/2021 17:009,70
14/03/2021 18:008,50
14/03/2021 19:006,45
14/03/2021 20:005,40
14/03/2021 21:004,55
14/03/2021 22:004,30
14/03/2021 23:002,35
15/03/2021 00:000,40
15/03/2021 01:00-0,85
15/03/2021 02:00-1,45
15/03/2021 03:00-1,85
15/03/2021 04:00-2,45
15/03/2021 05:00-3,10
15/03/2021 06:00-3,30
15/03/2021 07:00-3,60
15/03/2021 08:00-1,65
15/03/2021 09:001,90
15/03/2021 10:005,30
15/03/2021 11:007,10
15/03/2021 12:009,30
15/03/2021 13:0011,00
15/03/2021 14:0012,00
15/03/2021 15:0012,95
15/03/2021 16:0013,80
15/03/2021 18:0010,80
15/03/2021 19:006,65
15/03/2021 20:004,80
15/03/2021 21:003,65
15/03/2021 22:002,05
15/03/2021 23:000,10
16/03/2021 00:00-0,55
16/03/2021 01:00-1,45
16/03/2021 02:00-1,95
16/03/2021 03:00-2,10
16/03/2021 04:00-2,40
16/03/2021 06:00-3,10
16/03/2021 07:00-3,15
16/03/2021 08:00-1,40
16/03/2021 09:004,30
16/03/2021 10:008,30
16/03/2021 11:009,20
16/03/2021 12:0010,05
16/03/2021 13:0010,95
16/03/2021 14:0011,00
16/03/2021 15:0011,95
16/03/2021 16:0011,20
16/03/2021 17:0011,20
16/03/2021 18:009,35
16/03/2021 19:006,85
16/03/2021 20:006,00
16/03/2021 21:005,20
16/03/2021 23:001,10
17/03/2021 00:000,15
17/03/2021 02:000,15
17/03/2021 03:000,80
17/03/2021 04:002,90
17/03/2021 05:002,25
17/03/2021 06:000,85
17/03/2021 07:00-0,30
17/03/2021 09:0010,60
17/03/2021 10:0011,55
17/03/2021 11:0013,00
17/03/2021 12:0012,35
17/03/2021 13:0012,60
17/03/2021 14:0011,95
17/03/2021 15:0011,10
17/03/2021 16:0010,90
17/03/2021 17:0010,80
17/03/2021 18:0010,30
17/03/2021 19:007,10
17/03/2021 20:005,30
17/03/2021 21:004,20
17/03/2021 22:003,95
17/03/2021 23:003,90
18/03/2021 00:003,20
18/03/2021 01:000,45
18/03/2021 02:00-0,45
18/03/2021 03:00-0,90
18/03/2021 04:001,00
18/03/2021 05:001,90
18/03/2021 06:003,10
18/03/2021 07:002,75
18/03/2021 08:002,35
18/03/2021 09:003,00
18/03/2021 10:003,85
18/03/2021 11:005,20
18/03/2021 13:006,80
18/03/2021 14:007,60
18/03/2021 15:007,70
18/03/2021 16:006,30
18/03/2021 17:005,95
18/03/2021 18:004,10
18/03/2021 19:002,95
18/03/2021 20:003,00
18/03/2021 22:001,95
18/03/2021 23:002,40
19/03/2021 00:002,50
19/03/2021 01:002,30
19/03/2021 02:002,60
19/03/2021 03:002,60
19/03/2021 04:002,70
19/03/2021 05:002,90
19/03/2021 06:003,25
19/03/2021 07:003,40
19/03/2021 08:003,95
19/03/2021 09:004,40
19/03/2021 10:005,45
19/03/2021 11:007,05
19/03/2021 12:007,25
19/03/2021 13:008,00
19/03/2021 14:007,70
19/03/2021 15:006,40
19/03/2021 16:007,30
19/03/2021 17:005,70
19/03/2021 18:004,30
19/03/2021 19:003,55
19/03/2021 20:002,90
19/03/2021 21:002,00
19/03/2021 22:001,90
19/03/2021 23:001,90
20/03/2021 01:001,40
20/03/2021 02:001,80
20/03/2021 03:001,30
20/03/2021 04:001,30
20/03/2021 05:001,40
20/03/2021 06:001,25
20/03/2021 07:001,20
20/03/2021 08:001,25
20/03/2021 09:002,25
20/03/2021 10:002,80
20/03/2021 11:004,00
20/03/2021 13:004,70
20/03/2021 14:005,00
20/03/2021 15:005,00
20/03/2021 16:005,90
20/03/2021 17:005,10
20/03/2021 19:000,75
20/03/2021 20:000,25
20/03/2021 21:000,15
20/03/2021 22:00-0,30
20/03/2021 23:00-1,70
21/03/2021 00:00-2,30
21/03/2021 01:00-3,40
21/03/2021 02:00-3,80
21/03/2021 03:00-2,70
21/03/2021 04:00-3,85
21/03/2021 05:000,20
21/03/2021 06:00-0,80
21/03/2021 07:000,30
21/03/2021 08:002,30
21/03/2021 09:003,80
21/03/2021 10:005,70
21/03/2021 11:007,10
21/03/2021 12:006,80
21/03/2021 14:009,10
21/03/2021 15:009,30
21/03/2021 16:009,05
21/03/2021 17:009,60
21/03/2021 18:007,10
21/03/2021 19:004,75
21/03/2021 20:003,10
21/03/2021 21:001,90
21/03/2021 22:000,60
21/03/2021 23:00-0,50
22/03/2021 00:00-1,30
22/03/2021 01:00-1,90
22/03/2021 02:00-2,40
22/03/2021 03:00-2,90
22/03/2021 04:00-3,30
22/03/2021 05:00-3,70
22/03/2021 06:00-3,85
22/03/2021 07:00-4,00
22/03/2021 08:00-1,50
22/03/2021 09:003,10
22/03/2021 10:005,50
22/03/2021 11:007,95
22/03/2021 12:008,45
22/03/2021 13:008,95
22/03/2021 14:0011,00
22/03/2021 15:0011,75
22/03/2021 16:0012,65
22/03/2021 17:0012,90
22/03/2021 18:0011,40
22/03/2021 19:008,20
22/03/2021 20:003,25
22/03/2021 21:000,90
22/03/2021 22:00-0,10
22/03/2021 23:00-1,30
23/03/2021 00:00-2,05
23/03/2021 01:00-2,95
23/03/2021 02:00-3,30
23/03/2021 03:00-3,50
23/03/2021 04:00-3,55
23/03/2021 05:00-3,50
23/03/2021 06:00-4,25
23/03/2021 07:00-4,25
23/03/2021 08:000,40
23/03/2021 09:006,00
23/03/2021 10:0011,30
23/03/2021 11:0013,35
23/03/2021 12:0015,50
23/03/2021 13:0016,70
23/03/2021 14:0018,00
23/03/2021 15:0018,25
23/03/2021 16:0018,10
23/03/2021 17:0017,45
23/03/2021 18:0016,05
23/03/2021 19:0013,35
23/03/2021 20:008,45
23/03/2021 21:004,65
23/03/2021 22:002,60
23/03/2021 23:001,55
24/03/2021 00:000,70
24/03/2021 01:000,80
24/03/2021 02:000,10
24/03/2021 03:00-1,30
24/03/2021 04:00-1,90
24/03/2021 05:00-2,40
24/03/2021 06:00-2,60
24/03/2021 07:00-2,60
24/03/2021 08:001,50
24/03/2021 09:007,00
24/03/2021 10:0011,85
24/03/2021 11:0015,15
24/03/2021 12:0016,75
24/03/2021 13:0017,60
24/03/2021 14:0018,35
24/03/2021 15:0018,10
24/03/2021 16:0018,00
24/03/2021 17:0017,70
24/03/2021 18:0012,75
24/03/2021 19:008,95
24/03/2021 20:005,95
24/03/2021 21:004,50
24/03/2021 22:003,05
24/03/2021 23:001,90
25/03/2021 00:002,15
25/03/2021 01:002,30
25/03/2021 02:002,40
25/03/2021 03:002,40
25/03/2021 04:002,25
25/03/2021 05:002,40
25/03/2021 06:002,80
25/03/2021 07:002,70
25/03/2021 08:004,10
25/03/2021 09:006,30
25/03/2021 10:007,75
25/03/2021 11:009,90
25/03/2021 12:0012,60
25/03/2021 13:0013,55
25/03/2021 14:0015,40
25/03/2021 15:0016,10
25/03/2021 16:0016,20
25/03/2021 17:0015,85
25/03/2021 18:0014,80
25/03/2021 19:0012,25
25/03/2021 20:009,35
25/03/2021 21:006,35
25/03/2021 22:004,80
25/03/2021 23:003,65
26/03/2021 00:002,70
26/03/2021 01:001,80
26/03/2021 02:001,30
26/03/2021 03:000,70
26/03/2021 04:000,50
26/03/2021 05:000,55
26/03/2021 06:00-0,05
26/03/2021 07:00-0,85
26/03/2021 08:000,10
26/03/2021 09:004,90
26/03/2021 10:008,90
26/03/2021 11:009,75
26/03/2021 12:0011,30
26/03/2021 13:0012,10
26/03/2021 14:0011,45
26/03/2021 15:0011,35
26/03/2021 16:0011,10
26/03/2021 17:0010,05
26/03/2021 18:0010,05
26/03/2021 19:007,80
26/03/2021 20:007,20
26/03/2021 21:005,75
26/03/2021 22:004,25
26/03/2021 23:002,85
27/03/2021 00:001,15
27/03/2021 01:000,00
27/03/2021 02:00-0,25
27/03/2021 03:00-0,80
27/03/2021 04:000,15
27/03/2021 05:00-0,25
27/03/2021 06:000,55
27/03/2021 07:000,50
27/03/2021 08:002,95
27/03/2021 09:005,15
27/03/2021 10:006,75
27/03/2021 11:007,30
27/03/2021 12:008,65
27/03/2021 13:0010,70
27/03/2021 14:0012,25
27/03/2021 15:0013,30
27/03/2021 16:0014,30
27/03/2021 17:0015,15
27/03/2021 18:0014,40
27/03/2021 19:0011,80
27/03/2021 20:006,30
27/03/2021 21:003,90
27/03/2021 22:003,00
27/03/2021 23:001,35
28/03/2021 00:000,40
28/03/2021 01:000,20
28/03/2021 03:00-0,75
28/03/2021 04:00-0,30
28/03/2021 05:000,15
28/03/2021 06:00-0,85
28/03/2021 07:00-0,40
28/03/2021 08:00-0,10
28/03/2021 09:003,40
28/03/2021 10:007,65
28/03/2021 11:0012,55
28/03/2021 12:0015,20
28/03/2021 13:0016,50
28/03/2021 14:0017,30
28/03/2021 15:0018,30
28/03/2021 16:0018,60
28/03/2021 17:0019,55
28/03/2021 18:0019,60
28/03/2021 19:0019,15
28/03/2021 20:0014,95
28/03/2021 21:009,50
28/03/2021 22:006,70
28/03/2021 23:005,40
29/03/2021 00:004,70
29/03/2021 01:003,90
29/03/2021 02:003,50
29/03/2021 03:003,35
29/03/2021 04:003,00
29/03/2021 05:002,60
29/03/2021 06:001,65
29/03/2021 07:000,80
29/03/2021 08:001,25
29/03/2021 09:004,50
29/03/2021 10:006,80
29/03/2021 11:0010,45
29/03/2021 12:0014,15
29/03/2021 13:0016,50
29/03/2021 14:0017,20
29/03/2021 15:0018,45
29/03/2021 16:0019,05
29/03/2021 17:0019,25
29/03/2021 18:0018,20
29/03/2021 19:0018,40
29/03/2021 20:0015,40
29/03/2021 21:0012,50
29/03/2021 22:0010,90
29/03/2021 23:009,15
30/03/2021 00:008,90
30/03/2021 01:007,70
30/03/2021 02:005,90
30/03/2021 03:004,65
30/03/2021 04:003,95
30/03/2021 05:004,40
30/03/2021 06:004,90
30/03/2021 07:004,50
30/03/2021 08:005,15
30/03/2021 09:008,70
30/03/2021 10:0012,55
30/03/2021 11:0014,80
30/03/2021 12:0016,00
30/03/2021 13:0016,75
30/03/2021 14:0017,15
30/03/2021 15:0017,95
30/03/2021 16:0018,40
30/03/2021 17:0018,90
30/03/2021 18:0018,55
30/03/2021 19:0016,90
30/03/2021 20:0014,40
30/03/2021 21:0010,70
30/03/2021 22:009,00
30/03/2021 23:007,65
31/03/2021 00:006,90
31/03/2021 01:006,10
31/03/2021 02:005,90
31/03/2021 03:005,65
31/03/2021 04:004,70
31/03/2021 05:003,70
31/03/2021 06:002,90
31/03/2021 07:002,90
31/03/2021 08:004,60
31/03/2021 09:007,80
31/03/2021 10:0013,10
31/03/2021 11:0015,90
31/03/2021 12:0018,00
31/03/2021 13:0018,75
31/03/2021 14:0019,75
31/03/2021 15:0021,05
31/03/2021 16:0021,20
31/03/2021 17:0021,60
31/03/2021 18:0021,80
31/03/2021 19:0021,55
31/03/2021 20:0018,00
31/03/2021 21:0012,45
31/03/2021 22:009,20
31/03/2021 23:007,30
01/04/2021 00:006,05
01/04/2021 01:005,40
01/04/2021 02:005,75
01/04/2021 03:006,15
01/04/2021 04:006,30
01/04/2021 05:005,60
01/04/2021 06:005,00
01/04/2021 07:004,85
01/04/2021 08:005,10
01/04/2021 09:005,90
01/04/2021 10:008,80
01/04/2021 11:0014,55
01/04/2021 12:0014,60
01/04/2021 13:0015,25
01/04/2021 14:0015,70
01/04/2021 15:0016,95
01/04/2021 16:0018,20
01/04/2021 17:0018,55
01/04/2021 18:0018,75
01/04/2021 19:0015,90
01/04/2021 20:0014,60
01/04/2021 21:0011,75
01/04/2021 22:009,55
01/04/2021 23:007,50
02/04/2021 00:006,05
02/04/2021 01:006,45
02/04/2021 02:006,35
02/04/2021 03:004,50
02/04/2021 04:003,50
02/04/2021 05:003,25
02/04/2021 06:001,90
02/04/2021 07:001,70
02/04/2021 08:001,75
02/04/2021 09:005,35
02/04/2021 10:009,40
02/04/2021 11:0013,65
02/04/2021 12:0015,15
02/04/2021 13:0017,20
02/04/2021 14:0018,30
02/04/2021 15:0019,70
02/04/2021 16:0019,15
02/04/2021 17:0018,45
02/04/2021 18:0017,20
02/04/2021 19:0016,25
02/04/2021 20:0014,30
02/04/2021 21:0013,00
02/04/2021 22:0011,80
02/04/2021 23:0011,00
03/04/2021 00:009,00
03/04/2021 01:008,25
03/04/2021 02:008,50
03/04/2021 03:009,50
03/04/2021 04:0010,55
03/04/2021 05:0010,50
03/04/2021 06:0011,90
03/04/2021 07:0012,40
03/04/2021 08:0011,65
03/04/2021 09:0012,45
03/04/2021 10:0013,75
03/04/2021 11:0015,25
03/04/2021 12:0013,25
03/04/2021 13:0015,70
03/04/2021 14:0016,90
03/04/2021 15:0017,10
03/04/2021 16:0015,30
03/04/2021 17:0015,45
03/04/2021 18:0015,80
03/04/2021 19:0014,70
03/04/2021 20:006,95
03/04/2021 21:004,80
03/04/2021 22:003,25
03/04/2021 23:000,95
04/04/2021 00:000,00
04/04/2021 01:001,70
04/04/2021 02:000,70
04/04/2021 03:00-1,45
04/04/2021 04:00-2,25
04/04/2021 05:00-3,05
04/04/2021 06:00-3,10
04/04/2021 07:00-3,50
04/04/2021 08:00-3,75
04/04/2021 09:001,40
04/04/2021 10:007,70
04/04/2021 11:009,75
04/04/2021 12:0012,25
04/04/2021 13:0014,40
04/04/2021 14:0015,85
04/04/2021 15:0016,55
04/04/2021 16:0016,15
04/04/2021 17:0015,40
04/04/2021 18:0014,40
04/04/2021 19:0013,45
04/04/2021 20:0010,45
04/04/2021 21:005,65
04/04/2021 22:002,95
04/04/2021 23:001,80
05/04/2021 00:000,00
05/04/2021 01:00-0,90
05/04/2021 02:00-1,40
05/04/2021 03:00-2,20
05/04/2021 04:00-2,70
05/04/2021 05:00-3,50
05/04/2021 06:00-3,60
05/04/2021 07:00-4,00
05/04/2021 08:00-3,80
05/04/2021 09:001,50
05/04/2021 10:007,65
05/04/2021 11:0011,70
05/04/2021 12:0014,45
05/04/2021 13:0016,75
05/04/2021 14:0017,05
05/04/2021 15:0017,95
05/04/2021 16:0018,05
05/04/2021 17:0018,00
05/04/2021 18:0017,05
05/04/2021 19:0015,75
05/04/2021 20:0010,90
05/04/2021 21:006,95
05/04/2021 22:005,85
05/04/2021 23:004,05
06/04/2021 00:002,35
06/04/2021 01:001,65
06/04/2021 02:002,25
06/04/2021 03:002,25
06/04/2021 04:001,85
06/04/2021 05:001,05
06/04/2021 06:000,25
06/04/2021 07:00-0,70
06/04/2021 08:00-0,30
06/04/2021 09:001,10
06/04/2021 10:003,45
06/04/2021 11:008,00
06/04/2021 12:009,90
06/04/2021 13:0011,40
06/04/2021 14:0012,00
06/04/2021 15:0011,45
06/04/2021 16:0010,70
06/04/2021 17:009,85
06/04/2021 18:008,95
06/04/2021 19:008,05
06/04/2021 20:005,10
06/04/2021 21:003,45
06/04/2021 22:002,45
06/04/2021 23:001,70
07/04/2021 00:000,40
07/04/2021 01:000,25
07/04/2021 02:000,15
07/04/2021 03:00-1,15
07/04/2021 04:00-1,70
07/04/2021 05:00-1,35
07/04/2021 06:00-3,40
07/04/2021 07:00-4,30
07/04/2021 08:00-4,10
07/04/2021 09:001,05
07/04/2021 10:002,30
07/04/2021 11:003,10
07/04/2021 12:004,95
07/04/2021 13:006,05
07/04/2021 14:007,90
07/04/2021 15:009,20
07/04/2021 16:0010,45
07/04/2021 17:0011,70
07/04/2021 18:0011,90
07/04/2021 19:0011,10
07/04/2021 20:008,90
07/04/2021 21:004,45
07/04/2021 22:001,25
07/04/2021 23:00-0,50
08/04/2021 00:00-1,20
08/04/2021 01:00-1,40
08/04/2021 02:00-2,45
08/04/2021 03:00-2,70
08/04/2021 04:00-2,80
08/04/2021 05:00-3,20
08/04/2021 06:00-3,50
08/04/2021 07:00-3,20
08/04/2021 08:00-1,90
08/04/2021 09:002,35
08/04/2021 10:006,70
08/04/2021 11:0010,85
08/04/2021 12:0013,15
08/04/2021 13:0013,80
08/04/2021 14:0013,45
08/04/2021 15:0012,80
08/04/2021 16:0013,55
08/04/2021 17:0014,85
08/04/2021 18:0016,40
08/04/2021 19:0015,20
08/04/2021 20:0013,85
08/04/2021 21:009,65
08/04/2021 22:007,60
08/04/2021 23:007,35
09/04/2021 00:004,75
09/04/2021 01:003,55
09/04/2021 02:003,20
09/04/2021 03:003,20
09/04/2021 04:002,80
09/04/2021 05:002,20
09/04/2021 06:001,65
09/04/2021 07:001,40
09/04/2021 08:002,55
09/04/2021 09:005,00
09/04/2021 10:007,15
09/04/2021 11:0010,85
09/04/2021 12:0012,25
09/04/2021 13:0012,05
09/04/2021 14:009,70
09/04/2021 15:008,60
09/04/2021 16:008,65
09/04/2021 17:008,80
09/04/2021 18:008,65
09/04/2021 19:008,60
09/04/2021 20:008,40
09/04/2021 21:008,10
09/04/2021 22:008,05
09/04/2021 23:007,45
10/04/2021 00:006,10
10/04/2021 01:005,75
10/04/2021 02:006,85
10/04/2021 03:006,90
10/04/2021 04:007,00
10/04/2021 05:007,10
10/04/2021 06:007,30
10/04/2021 07:007,25
10/04/2021 08:007,25
10/04/2021 09:007,75
10/04/2021 10:008,75
10/04/2021 11:009,70
10/04/2021 12:0010,90
10/04/2021 13:0012,15
10/04/2021 14:0014,20
10/04/2021 15:0015,30
10/04/2021 16:0013,85
10/04/2021 17:0010,85
10/04/2021 18:0010,00
10/04/2021 19:009,30
10/04/2021 20:008,90
10/04/2021 21:008,95
10/04/2021 22:008,75
10/04/2021 23:008,40
11/04/2021 00:008,30
11/04/2021 01:008,05
11/04/2021 02:007,45
11/04/2021 03:006,40
11/04/2021 04:006,05
11/04/2021 05:005,80
11/04/2021 06:005,70
11/04/2021 07:005,25
11/04/2021 08:005,20
11/04/2021 09:005,40
11/04/2021 10:005,70
11/04/2021 11:006,55
11/04/2021 12:007,30
11/04/2021 13:007,65
11/04/2021 14:007,15
11/04/2021 15:007,00
11/04/2021 16:007,25
11/04/2021 17:007,10
11/04/2021 18:005,90
11/04/2021 19:005,55
11/04/2021 20:003,35
11/04/2021 21:002,45
11/04/2021 22:001,40
11/04/2021 23:000,65
12/04/2021 00:000,10
12/04/2021 01:00-1,20
12/04/2021 02:00-2,15
12/04/2021 03:00-2,80
12/04/2021 04:00-3,50
12/04/2021 05:00-3,80
12/04/2021 06:00-4,35
12/04/2021 07:00-5,05
12/04/2021 08:00-4,10
12/04/2021 09:00-0,40
12/04/2021 10:003,40
12/04/2021 11:004,75
12/04/2021 12:005,90
12/04/2021 13:007,10
12/04/2021 14:008,70
12/04/2021 15:0010,90
12/04/2021 16:0010,40
12/04/2021 17:0010,70
12/04/2021 18:0010,95
12/04/2021 19:0010,00
12/04/2021 20:008,80
12/04/2021 21:006,80
12/04/2021 22:005,55
12/04/2021 23:004,00
13/04/2021 00:002,50
13/04/2021 01:000,75
13/04/2021 02:00-0,25
13/04/2021 03:00-1,00
13/04/2021 04:00-1,40
13/04/2021 05:00-1,80
13/04/2021 06:00-2,05
13/04/2021 07:00-2,60
13/04/2021 08:00-1,45
13/04/2021 09:001,15
13/04/2021 10:006,20
13/04/2021 11:007,55
13/04/2021 12:009,70
13/04/2021 13:0011,40
13/04/2021 14:0012,10
13/04/2021 15:0011,30
13/04/2021 16:0011,35
13/04/2021 17:0011,40
13/04/2021 18:0010,95
13/04/2021 19:0010,40
13/04/2021 20:009,60
13/04/2021 21:008,70
13/04/2021 22:007,30
13/04/2021 23:006,65
14/04/2021 00:004,60
14/04/2021 01:003,45
14/04/2021 02:003,90
14/04/2021 03:003,60
14/04/2021 04:002,85
14/04/2021 05:002,90
14/04/2021 06:003,45
14/04/2021 07:004,00
14/04/2021 08:004,85
14/04/2021 09:006,70
14/04/2021 10:0010,85
14/04/2021 11:0013,05
14/04/2021 12:0014,50
14/04/2021 13:0014,35
14/04/2021 14:0014,95
14/04/2021 15:0015,20
14/04/2021 16:0015,15
14/04/2021 17:0014,90
14/04/2021 18:0014,30
14/04/2021 19:0013,10
14/04/2021 20:009,65
14/04/2021 21:008,00
14/04/2021 22:004,80
14/04/2021 23:002,35
15/04/2021 00:000,50
15/04/2021 01:00-0,70
15/04/2021 02:00-1,15
15/04/2021 03:00-1,90
15/04/2021 04:00-2,30
15/04/2021 05:00-3,15
15/04/2021 06:00-3,55
15/04/2021 07:00-3,95
15/04/2021 08:00-2,15
15/04/2021 09:002,15
15/04/2021 10:007,75
15/04/2021 11:0010,45
15/04/2021 12:0011,45
15/04/2021 13:0012,00
15/04/2021 14:0013,20
15/04/2021 15:0013,95
15/04/2021 16:0013,20
15/04/2021 17:0012,85
15/04/2021 18:0012,20
15/04/2021 19:009,50
15/04/2021 20:007,00
15/04/2021 21:004,90
15/04/2021 22:003,00
15/04/2021 23:00-0,60
16/04/2021 00:00-1,55
16/04/2021 01:00-2,70
16/04/2021 02:00-3,95
16/04/2021 03:00-4,90
16/04/2021 04:00-5,55
16/04/2021 05:00-6,15
16/04/2021 06:00-6,60
16/04/2021 07:00-6,85
16/04/2021 08:00-5,40
16/04/2021 09:000,70
16/04/2021 10:005,15
16/04/2021 11:006,35
16/04/2021 12:007,25
16/04/2021 13:008,15
16/04/2021 14:008,45
16/04/2021 15:009,65
16/04/2021 16:009,10
16/04/2021 17:008,95
16/04/2021 18:009,65
16/04/2021 19:008,95
16/04/2021 20:006,20
16/04/2021 21:002,10
16/04/2021 22:000,55
16/04/2021 23:00-1,45
17/04/2021 00:00-2,05
17/04/2021 01:00-3,60
17/04/2021 02:00-4,30
17/04/2021 03:00-4,80
17/04/2021 04:00-5,80
17/04/2021 05:00-6,20
17/04/2021 06:00-6,55
17/04/2021 07:00-6,90
17/04/2021 08:00-4,80
17/04/2021 09:000,05
17/04/2021 10:004,40
17/04/2021 11:006,50
17/04/2021 12:008,25
17/04/2021 13:008,05
17/04/2021 14:008,90
17/04/2021 15:0010,00
17/04/2021 16:009,60
17/04/2021 17:009,75
17/04/2021 18:009,15
17/04/2021 19:007,90
17/04/2021 20:005,05
17/04/2021 21:002,85
17/04/2021 22:001,30
17/04/2021 23:00-0,55
18/04/2021 00:00-1,90
18/04/2021 01:00-2,40
18/04/2021 02:00-3,15
18/04/2021 03:00-3,65
18/04/2021 04:00-4,30
18/04/2021 05:00-4,15
18/04/2021 06:00-3,00
18/04/2021 07:00-4,15
18/04/2021 08:00-3,25
18/04/2021 09:000,50
18/04/2021 10:004,75
18/04/2021 11:006,90
18/04/2021 12:0010,15
18/04/2021 13:0012,05
18/04/2021 14:0014,55
18/04/2021 15:0015,35
18/04/2021 16:0016,15
18/04/2021 17:0016,55
18/04/2021 18:0016,45
18/04/2021 19:0016,05
18/04/2021 20:0014,60
18/04/2021 21:0011,55
18/04/2021 22:007,60
18/04/2021 23:005,00
19/04/2021 00:003,95
19/04/2021 01:002,95
19/04/2021 02:001,90
19/04/2021 03:001,65
19/04/2021 04:001,30
19/04/2021 05:000,75
19/04/2021 06:001,40
19/04/2021 07:001,90
19/04/2021 08:002,90
19/04/2021 09:005,75
19/04/2021 10:0010,25
19/04/2021 11:0013,40
19/04/2021 12:0014,30
19/04/2021 13:0015,95
19/04/2021 14:0015,75
19/04/2021 15:0015,30
19/04/2021 16:0015,30
19/04/2021 17:0014,20
19/04/2021 18:0012,90
19/04/2021 19:0011,90
19/04/2021 20:0010,15
19/04/2021 21:008,55
19/04/2021 22:007,30
19/04/2021 23:007,10
20/04/2021 00:006,25
20/04/2021 01:006,00
20/04/2021 02:005,10
20/04/2021 03:003,50
20/04/2021 04:003,85
20/04/2021 05:004,95
20/04/2021 06:005,70
20/04/2021 07:004,95
20/04/2021 08:005,35
20/04/2021 09:007,10
20/04/2021 10:007,70
20/04/2021 11:008,50
20/04/2021 12:0010,45
20/04/2021 13:0011,45
20/04/2021 14:0012,60
20/04/2021 15:0012,10
20/04/2021 16:0010,15
20/04/2021 17:0010,10
20/04/2021 18:0010,50
20/04/2021 19:008,25
20/04/2021 20:007,70
20/04/2021 21:007,15
20/04/2021 22:006,75
20/04/2021 23:006,50
21/04/2021 00:006,15
21/04/2021 01:006,00
21/04/2021 02:006,00
21/04/2021 03:005,70
21/04/2021 04:005,65
21/04/2021 05:005,60
21/04/2021 06:005,70
21/04/2021 07:005,65
21/04/2021 08:006,10
21/04/2021 09:006,75
21/04/2021 10:008,30
21/04/2021 11:008,95
21/04/2021 12:0010,70
21/04/2021 13:0010,80
21/04/2021 14:0011,40
21/04/2021 15:0011,80
21/04/2021 16:0010,25
21/04/2021 17:0011,35
21/04/2021 18:0012,25
21/04/2021 19:0011,10
21/04/2021 20:0010,00
21/04/2021 21:008,75
21/04/2021 22:007,50
21/04/2021 23:007,30
22/04/2021 00:008,25
22/04/2021 01:008,10
22/04/2021 02:007,90
22/04/2021 03:007,70
22/04/2021 04:007,60
22/04/2021 05:007,60
22/04/2021 06:007,45
22/04/2021 07:007,30
22/04/2021 08:007,50
22/04/2021 09:008,05
22/04/2021 10:009,10
22/04/2021 11:009,35
22/04/2021 12:008,90
22/04/2021 13:009,10
22/04/2021 14:0010,30
22/04/2021 15:0011,45
22/04/2021 16:0011,50
22/04/2021 17:0012,00
22/04/2021 18:0012,85
22/04/2021 19:0012,35
22/04/2021 20:0011,35
22/04/2021 21:009,35
22/04/2021 22:007,30
22/04/2021 23:006,80
23/04/2021 00:007,20
23/04/2021 01:007,65
23/04/2021 02:007,80
23/04/2021 03:007,70
23/04/2021 04:007,95
23/04/2021 05:008,20
23/04/2021 06:007,45
23/04/2021 07:006,75
23/04/2021 08:008,30
23/04/2021 09:008,90
23/04/2021 10:0010,45
23/04/2021 11:0011,70
23/04/2021 12:0012,70
23/04/2021 13:0013,35
23/04/2021 14:0014,20
23/04/2021 15:0014,50
23/04/2021 16:0014,20
23/04/2021 17:0014,60
23/04/2021 18:0014,75
23/04/2021 19:0015,15
23/04/2021 20:0014,40
23/04/2021 21:0010,45
23/04/2021 22:009,00
23/04/2021 23:008,10
24/04/2021 00:007,80
24/04/2021 01:007,70
24/04/2021 02:007,20
24/04/2021 03:006,55
24/04/2021 04:005,40
24/04/2021 05:004,40
24/04/2021 06:004,70
24/04/2021 07:004,35
24/04/2021 08:005,65
24/04/2021 09:008,40
24/04/2021 10:0010,80
24/04/2021 11:0012,35
24/04/2021 12:0014,30
24/04/2021 13:0015,80
24/04/2021 14:0017,20
24/04/2021 15:0017,15
24/04/2021 16:0017,50
24/04/2021 17:0018,25
24/04/2021 18:0018,20
24/04/2021 19:0018,40
24/04/2021 20:0016,55
24/04/2021 21:0014,00
24/04/2021 22:0012,85
24/04/2021 23:0012,10
25/04/2021 00:0011,20
25/04/2021 01:0010,60
25/04/2021 02:009,30
25/04/2021 03:009,30
25/04/2021 04:009,35
25/04/2021 05:008,80
25/04/2021 06:008,15
25/04/2021 07:007,25
25/04/2021 08:008,10
25/04/2021 09:009,70
25/04/2021 10:0011,95
25/04/2021 11:0013,60
25/04/2021 12:0014,90
25/04/2021 13:0015,65
25/04/2021 14:0016,05
25/04/2021 15:0016,15
25/04/2021 16:0014,55
25/04/2021 17:0014,85
25/04/2021 18:0015,10
25/04/2021 19:0014,05
25/04/2021 20:0012,05
25/04/2021 21:0011,45
25/04/2021 22:0010,80
25/04/2021 23:0010,10
26/04/2021 00:0010,00
26/04/2021 01:009,90
26/04/2021 02:009,90
26/04/2021 03:009,90
26/04/2021 04:009,60
26/04/2021 05:009,30
26/04/2021 06:008,25
26/04/2021 07:007,95
26/04/2021 08:008,15
26/04/2021 09:009,40
26/04/2021 10:0011,35
26/04/2021 11:0013,00
26/04/2021 12:0014,60
26/04/2021 13:0015,15
26/04/2021 14:0010,60
26/04/2021 15:0011,15
26/04/2021 16:0011,70
26/04/2021 17:0012,40
26/04/2021 18:0012,45
26/04/2021 19:0012,65
26/04/2021 20:0012,45
26/04/2021 21:0010,95
26/04/2021 22:0010,15
26/04/2021 23:008,00
27/04/2021 00:007,35
27/04/2021 01:006,10
27/04/2021 02:005,60
27/04/2021 03:005,85
27/04/2021 04:006,70
27/04/2021 05:006,60
27/04/2021 06:006,55
27/04/2021 07:006,20
27/04/2021 08:006,70
27/04/2021 09:007,60
27/04/2021 10:008,70
27/04/2021 11:008,90
27/04/2021 12:008,90
27/04/2021 13:008,70
27/04/2021 14:008,95
27/04/2021 15:008,95
27/04/2021 16:009,10
27/04/2021 17:009,00
27/04/2021 18:008,95
27/04/2021 19:008,65
27/04/2021 20:008,30
27/04/2021 21:007,90
27/04/2021 22:007,35
27/04/2021 23:006,70
28/04/2021 00:006,40
28/04/2021 01:005,70
28/04/2021 02:004,90
28/04/2021 03:005,55
28/04/2021 04:006,00
28/04/2021 05:006,00
28/04/2021 06:005,70
28/04/2021 07:005,60
28/04/2021 08:006,15
28/04/2021 09:006,80
28/04/2021 10:007,95
28/04/2021 11:009,25
28/04/2021 12:009,80
28/04/2021 13:009,60
28/04/2021 14:009,60
28/04/2021 15:009,35
28/04/2021 16:009,00
28/04/2021 17:008,95
28/04/2021 18:008,30
28/04/2021 19:007,50
28/04/2021 20:006,60
28/04/2021 21:006,05
28/04/2021 22:005,00
28/04/2021 23:004,90
29/04/2021 00:004,35
29/04/2021 01:003,95
29/04/2021 02:004,10
29/04/2021 03:004,10
29/04/2021 04:004,25
29/04/2021 05:004,00
29/04/2021 06:003,85
29/04/2021 07:003,40
29/04/2021 08:003,45
29/04/2021 09:004,00
29/04/2021 10:004,50
29/04/2021 11:005,55
29/04/2021 12:007,30
29/04/2021 13:007,85
29/04/2021 14:008,35
29/04/2021 15:007,20
29/04/2021 16:006,55
29/04/2021 17:007,55
29/04/2021 18:007,05
29/04/2021 19:006,05
29/04/2021 20:005,30
29/04/2021 21:005,10
29/04/2021 22:005,15
29/04/2021 23:004,80
30/04/2021 00:003,90
30/04/2021 01:004,15
30/04/2021 02:003,95
30/04/2021 03:004,20
30/04/2021 04:004,10
30/04/2021 05:004,20
30/04/2021 06:004,10
30/04/2021 07:004,10
30/04/2021 08:004,00
30/04/2021 09:004,15
30/04/2021 10:004,70
30/04/2021 11:005,45
30/04/2021 12:006,70
30/04/2021 13:006,65
30/04/2021 14:006,10
30/04/2021 15:006,05
30/04/2021 16:005,55
30/04/2021 17:006,80
30/04/2021 18:005,85
30/04/2021 19:005,10
30/04/2021 20:005,05
30/04/2021 21:004,50
30/04/2021 22:004,40
30/04/2021 23:003,70
01/05/2021 00:003,30
01/05/2021 01:003,00
01/05/2021 02:003,00
01/05/2021 03:003,10
01/05/2021 04:002,95
01/05/2021 05:002,90
01/05/2021 06:002,40
01/05/2021 07:001,70
01/05/2021 08:002,20
01/05/2021 09:005,80
01/05/2021 10:006,65
01/05/2021 11:007,70
01/05/2021 12:007,55
01/05/2021 13:007,40
01/05/2021 14:005,75
01/05/2021 15:005,70
01/05/2021 16:006,05
01/05/2021 17:004,85
01/05/2021 18:004,50
01/05/2021 19:004,70
01/05/2021 20:004,70
01/05/2021 21:004,15
01/05/2021 22:003,40
01/05/2021 23:003,25
02/05/2021 00:002,55
02/05/2021 01:001,65
02/05/2021 02:000,90
02/05/2021 03:001,20
02/05/2021 04:001,15
02/05/2021 05:001,30
02/05/2021 06:001,20
02/05/2021 07:000,80
02/05/2021 08:002,05
02/05/2021 09:003,95
02/05/2021 10:006,40
02/05/2021 11:007,85
02/05/2021 12:009,05
02/05/2021 13:009,60
02/05/2021 14:0010,10
02/05/2021 15:0010,00
02/05/2021 16:009,60
02/05/2021 17:009,30
02/05/2021 18:008,80
02/05/2021 19:009,45
02/05/2021 20:006,55
02/05/2021 21:004,50
02/05/2021 22:002,80
02/05/2021 23:002,25
03/05/2021 00:000,65
03/05/2021 01:00-0,05
03/05/2021 02:00-0,85
03/05/2021 03:00-1,20
03/05/2021 04:00-1,60
03/05/2021 05:00-1,55
03/05/2021 06:00-1,70
03/05/2021 07:00-1,40
03/05/2021 08:000,75
03/05/2021 09:004,20
03/05/2021 10:007,00
03/05/2021 11:007,40
03/05/2021 12:009,25
03/05/2021 13:0010,85
03/05/2021 14:0012,45
03/05/2021 15:0012,00
03/05/2021 16:0012,65
03/05/2021 17:0013,65
03/05/2021 18:0015,00
03/05/2021 19:0014,65
03/05/2021 20:0013,55
03/05/2021 21:0010,80
03/05/2021 22:008,05
03/05/2021 23:005,45
04/05/2021 00:003,65
04/05/2021 01:003,00
04/05/2021 02:002,25
04/05/2021 03:001,50
04/05/2021 04:001,60
04/05/2021 05:000,90
04/05/2021 06:000,40
04/05/2021 07:00-0,10
04/05/2021 08:002,35
04/05/2021 09:006,85
04/05/2021 10:0010,30
04/05/2021 11:0012,75
04/05/2021 12:0015,20
04/05/2021 13:0016,55
04/05/2021 14:0017,55
04/05/2021 15:0018,15
04/05/2021 16:0018,85
04/05/2021 17:0018,40
04/05/2021 18:0015,70
04/05/2021 19:0015,00
04/05/2021 20:0013,35
04/05/2021 21:0010,05
04/05/2021 22:008,45
04/05/2021 23:007,60
05/05/2021 00:006,95
05/05/2021 01:005,40
05/05/2021 02:003,90
05/05/2021 03:003,50
05/05/2021 04:004,75
05/05/2021 05:005,30
05/05/2021 06:005,00
05/05/2021 07:003,95
05/05/2021 08:003,90
05/05/2021 09:005,15
05/05/2021 10:008,35
05/05/2021 11:0011,40
05/05/2021 12:0014,30
05/05/2021 13:0014,80
05/05/2021 14:0016,10
05/05/2021 15:0017,15
05/05/2021 16:0017,70
05/05/2021 17:0017,45
05/05/2021 18:0016,35
05/05/2021 19:0015,55
05/05/2021 20:0013,65
05/05/2021 21:0011,95
05/05/2021 22:009,25
05/05/2021 23:007,45
06/05/2021 00:006,15
06/05/2021 01:004,95
06/05/2021 02:004,30
06/05/2021 03:003,85
06/05/2021 04:004,00
06/05/2021 05:003,35
06/05/2021 06:002,90
06/05/2021 07:002,70
06/05/2021 08:004,15
06/05/2021 09:008,70
06/05/2021 10:0012,20
06/05/2021 11:0014,25
06/05/2021 12:0016,85
06/05/2021 13:0018,10
06/05/2021 14:0018,70
06/05/2021 15:0019,85
06/05/2021 16:0017,85
06/05/2021 17:0016,70
06/05/2021 18:0017,30
06/05/2021 19:0018,25
06/05/2021 20:0015,15
06/05/2021 21:0013,75
06/05/2021 22:0012,35
06/05/2021 23:0011,10
07/05/2021 00:009,50
07/05/2021 01:008,25
07/05/2021 02:008,05
07/05/2021 03:007,30
07/05/2021 04:006,90
07/05/2021 05:007,00
07/05/2021 06:006,25
07/05/2021 07:006,25
07/05/2021 08:007,15
07/05/2021 09:009,70
07/05/2021 10:0012,30
07/05/2021 11:0015,10
07/05/2021 12:0017,25
07/05/2021 13:0019,55
07/05/2021 14:0020,90
07/05/2021 15:0020,95
07/05/2021 16:0021,05
07/05/2021 17:0022,00
07/05/2021 18:0022,25
07/05/2021 19:0022,55
07/05/2021 20:0021,15
07/05/2021 21:0019,45
07/05/2021 22:0013,45
07/05/2021 23:0010,80
08/05/2021 00:009,50
08/05/2021 01:007,65
08/05/2021 02:007,65
08/05/2021 03:007,60
08/05/2021 04:006,85
08/05/2021 05:006,05
08/05/2021 06:004,20
08/05/2021 07:004,00
08/05/2021 08:007,10
08/05/2021 09:0013,05
08/05/2021 10:0017,95
08/05/2021 11:0019,90
08/05/2021 12:0020,35
08/05/2021 13:0021,25
08/05/2021 14:0022,35
08/05/2021 15:0023,15
08/05/2021 16:0023,20
08/05/2021 17:0023,25
08/05/2021 18:0023,20
08/05/2021 19:0022,40
08/05/2021 20:0022,20
08/05/2021 21:0019,85
08/05/2021 22:0017,80
08/05/2021 23:0011,55
09/05/2021 00:0010,20
09/05/2021 01:0013,90
09/05/2021 02:0013,35
09/05/2021 03:0013,30
09/05/2021 04:0012,10
09/05/2021 05:0011,55
09/05/2021 06:0013,00
09/05/2021 07:0012,70
09/05/2021 08:0012,10
09/05/2021 09:0012,05
09/05/2021 10:0014,15
09/05/2021 11:0014,75
09/05/2021 12:0013,60
09/05/2021 13:0013,25
09/05/2021 14:009,85
09/05/2021 15:0010,65
09/05/2021 16:0010,55
09/05/2021 17:0010,35
09/05/2021 18:0010,05
09/05/2021 19:009,05
09/05/2021 20:007,90
09/05/2021 21:008,00
09/05/2021 22:007,40
09/05/2021 23:006,80
10/05/2021 00:006,20
10/05/2021 01:005,80
10/05/2021 02:004,95
10/05/2021 03:004,50
10/05/2021 04:004,35
10/05/2021 05:005,05
10/05/2021 06:005,20
10/05/2021 07:004,95
10/05/2021 08:005,65
10/05/2021 09:006,00
10/05/2021 10:006,65
10/05/2021 11:007,45
10/05/2021 12:008,55
10/05/2021 13:009,55
10/05/2021 14:0010,30
10/05/2021 15:008,75
10/05/2021 16:006,50
10/05/2021 17:008,60
10/05/2021 18:008,75
10/05/2021 19:008,35
10/05/2021 20:007,60
10/05/2021 21:006,60
10/05/2021 22:006,05
10/05/2021 23:006,00
11/05/2021 00:004,30
11/05/2021 01:004,05
11/05/2021 02:002,05
11/05/2021 03:000,25
11/05/2021 04:00-0,30
11/05/2021 05:00-0,55
11/05/2021 06:00-0,50
11/05/2021 07:00-0,75
11/05/2021 08:001,00
11/05/2021 09:004,65
11/05/2021 10:006,30
11/05/2021 11:007,10
11/05/2021 12:009,15
11/05/2021 13:009,70
11/05/2021 14:0010,05
11/05/2021 15:0011,80
11/05/2021 16:0011,20
11/05/2021 17:0012,30
11/05/2021 18:0011,45
11/05/2021 19:0010,90
11/05/2021 20:0010,10
11/05/2021 21:008,40
11/05/2021 22:008,25
11/05/2021 23:006,65
12/05/2021 00:005,55
12/05/2021 01:005,60
12/05/2021 02:005,80
12/05/2021 03:005,70
12/05/2021 04:006,10
12/05/2021 05:006,20
12/05/2021 06:006,15
12/05/2021 07:006,70
12/05/2021 08:007,25
12/05/2021 09:007,50
12/05/2021 10:007,65
12/05/2021 11:008,95
12/05/2021 12:0010,55
12/05/2021 13:0012,65
12/05/2021 14:0012,90
12/05/2021 15:0012,30
12/05/2021 16:0012,10
12/05/2021 17:0011,95
12/05/2021 18:0012,95
12/05/2021 19:0012,70
12/05/2021 20:009,35
12/05/2021 21:006,90
12/05/2021 22:006,15
12/05/2021 23:005,75
13/05/2021 00:005,75
13/05/2021 01:005,60
13/05/2021 02:004,50
13/05/2021 03:005,00
13/05/2021 04:004,75
13/05/2021 05:004,50
13/05/2021 06:005,75
13/05/2021 07:006,30
13/05/2021 08:006,10
13/05/2021 09:007,00
13/05/2021 10:007,15
13/05/2021 11:007,50
13/05/2021 12:008,40
13/05/2021 13:008,40
13/05/2021 14:009,20
13/05/2021 15:0010,55
13/05/2021 16:0010,85
13/05/2021 17:0011,60
13/05/2021 18:0013,00
13/05/2021 19:0012,85
13/05/2021 20:0011,70
13/05/2021 21:0010,35
13/05/2021 22:008,50
13/05/2021 23:007,10
14/05/2021 00:006,15
14/05/2021 01:004,45
14/05/2021 02:003,70
14/05/2021 03:002,90
14/05/2021 04:002,20
14/05/2021 05:001,95
14/05/2021 06:001,20
14/05/2021 07:001,05
14/05/2021 08:001,25
14/05/2021 09:003,85
14/05/2021 10:007,85
14/05/2021 11:009,15
14/05/2021 12:0010,55
14/05/2021 13:0012,05
14/05/2021 14:0014,10
14/05/2021 15:0015,25
14/05/2021 16:0015,60
14/05/2021 17:0015,80
14/05/2021 18:0015,60
14/05/2021 19:0016,35
14/05/2021 20:0015,65
14/05/2021 21:0014,45
14/05/2021 22:0013,70
14/05/2021 23:0013,60
15/05/2021 00:0012,95
15/05/2021 01:0012,25
15/05/2021 02:0011,70
15/05/2021 03:0011,35
15/05/2021 04:0010,85
15/05/2021 05:0010,40
15/05/2021 06:009,95
15/05/2021 07:009,60
15/05/2021 08:009,30
15/05/2021 09:009,35
15/05/2021 10:009,75
15/05/2021 11:0010,35
15/05/2021 12:0011,35
15/05/2021 13:0013,50
15/05/2021 14:0014,30
15/05/2021 15:0014,15
15/05/2021 16:0014,25
15/05/2021 17:0016,15
15/05/2021 18:0015,30
15/05/2021 19:0015,20
15/05/2021 20:0014,30
15/05/2021 21:0014,70
15/05/2021 22:0014,35
15/05/2021 23:0013,95
16/05/2021 00:0013,40
16/05/2021 01:0013,15
16/05/2021 02:0012,25
16/05/2021 03:0011,80
16/05/2021 04:0011,40
16/05/2021 05:0011,30
16/05/2021 06:0011,40
16/05/2021 07:0011,40
16/05/2021 08:0011,90
16/05/2021 09:0012,50
16/05/2021 10:0014,25
16/05/2021 11:0015,75
16/05/2021 12:0016,10
16/05/2021 13:0016,25
16/05/2021 14:0016,80
16/05/2021 15:0016,95
16/05/2021 16:0017,15
16/05/2021 17:0016,75
16/05/2021 18:0016,55
16/05/2021 19:0010,75
16/05/2021 20:009,75
16/05/2021 21:008,05
16/05/2021 22:007,10
16/05/2021 23:007,15
17/05/2021 00:007,10
17/05/2021 01:007,10
17/05/2021 02:007,10
17/05/2021 03:007,05
17/05/2021 04:006,80
17/05/2021 05:006,80
17/05/2021 06:007,00
17/05/2021 07:007,00
17/05/2021 08:007,50
17/05/2021 09:009,25
17/05/2021 10:0010,90
17/05/2021 11:0010,35
17/05/2021 12:0012,95
17/05/2021 13:0013,85
17/05/2021 14:0015,05
17/05/2021 15:0015,80
17/05/2021 16:0016,80
17/05/2021 17:0016,80
17/05/2021 18:0017,50
17/05/2021 19:0016,50
17/05/2021 20:0013,15
17/05/2021 21:009,55
17/05/2021 22:007,65
17/05/2021 23:006,15
18/05/2021 00:006,25
18/05/2021 01:006,60
18/05/2021 02:006,60
18/05/2021 03:006,55
18/05/2021 04:006,70
18/05/2021 05:006,80
18/05/2021 06:006,80
18/05/2021 07:008,20
18/05/2021 08:009,45
18/05/2021 09:0011,00
18/05/2021 10:0011,20
18/05/2021 11:0012,95
18/05/2021 12:0015,20
18/05/2021 13:0016,05
18/05/2021 14:0017,55
18/05/2021 15:0018,25
18/05/2021 16:0016,75
18/05/2021 17:0015,75
18/05/2021 18:0015,05
18/05/2021 19:0014,40
18/05/2021 20:0012,10
18/05/2021 21:0010,15
18/05/2021 22:009,20
18/05/2021 23:008,10
19/05/2021 00:006,30
19/05/2021 01:004,50
19/05/2021 02:003,40
19/05/2021 03:002,40
19/05/2021 04:001,40
19/05/2021 05:000,70
19/05/2021 06:001,10
19/05/2021 07:000,65
19/05/2021 08:003,15
19/05/2021 09:006,80
19/05/2021 10:009,00
19/05/2021 11:0010,75
19/05/2021 12:0012,80
19/05/2021 13:0013,65
19/05/2021 14:0013,85
19/05/2021 15:0015,05
19/05/2021 16:0015,25
19/05/2021 17:0014,75
19/05/2021 18:0014,70
19/05/2021 19:0013,85
19/05/2021 20:0012,00
19/05/2021 21:009,75
19/05/2021 22:007,75
19/05/2021 23:006,05
20/05/2021 00:004,95
20/05/2021 01:004,15
20/05/2021 02:003,40
20/05/2021 03:002,70
20/05/2021 04:002,30
20/05/2021 05:002,30
20/05/2021 06:002,55
20/05/2021 07:003,40
20/05/2021 08:006,10
20/05/2021 09:0010,00
20/05/2021 10:0014,35
20/05/2021 11:0017,60
20/05/2021 12:0019,75
20/05/2021 13:0021,40
20/05/2021 14:0022,40
20/05/2021 15:0022,90
20/05/2021 16:0023,30
20/05/2021 17:0024,20
20/05/2021 18:0024,35
20/05/2021 19:0023,80
20/05/2021 20:0019,20
20/05/2021 21:0015,60
20/05/2021 22:0012,30
20/05/2021 23:0010,00
21/05/2021 00:009,25
21/05/2021 01:007,45
21/05/2021 02:006,65
21/05/2021 03:005,80
21/05/2021 04:004,25
21/05/2021 05:003,50
21/05/2021 06:002,60
21/05/2021 07:002,55
21/05/2021 08:004,90
21/05/2021 09:008,20
21/05/2021 10:0011,00
21/05/2021 11:0013,60
21/05/2021 12:0016,00
21/05/2021 13:0016,70
21/05/2021 14:0018,45
21/05/2021 15:0018,90
21/05/2021 16:0018,80
21/05/2021 17:0015,10
21/05/2021 18:0011,40
21/05/2021 19:0010,85
21/05/2021 20:008,85
21/05/2021 21:007,25
21/05/2021 22:006,65
21/05/2021 23:005,80
22/05/2021 00:005,50
22/05/2021 01:005,80
22/05/2021 02:005,90
22/05/2021 03:005,90
22/05/2021 04:006,00
22/05/2021 05:005,70
22/05/2021 06:005,80
22/05/2021 07:006,10
22/05/2021 08:006,55
22/05/2021 09:007,45
22/05/2021 10:008,35
22/05/2021 11:009,85
22/05/2021 12:0010,95
22/05/2021 13:0012,20
22/05/2021 14:0011,80
22/05/2021 15:0010,60
22/05/2021 16:0011,55
22/05/2021 17:0010,80
22/05/2021 18:007,90
22/05/2021 19:008,20
22/05/2021 20:007,55
22/05/2021 21:006,20
22/05/2021 22:005,80
22/05/2021 23:005,50
23/05/2021 00:005,05
23/05/2021 01:003,45
23/05/2021 02:002,00
23/05/2021 03:002,30
23/05/2021 04:002,70
23/05/2021 05:002,70
23/05/2021 06:002,45
23/05/2021 07:002,30
23/05/2021 08:002,40
23/05/2021 09:004,60
23/05/2021 10:006,70
23/05/2021 11:009,75
23/05/2021 12:0011,10
23/05/2021 13:0012,70
23/05/2021 14:0014,40
23/05/2021 15:0015,70
23/05/2021 16:0016,50
23/05/2021 17:0017,40
23/05/2021 18:0017,50
23/05/2021 19:0017,20
23/05/2021 20:0016,15
23/05/2021 21:0013,50
23/05/2021 22:008,75
23/05/2021 23:006,95
24/05/2021 00:005,55
24/05/2021 01:005,60
24/05/2021 02:006,10
24/05/2021 03:008,00
24/05/2021 04:008,70
24/05/2021 05:008,25
24/05/2021 06:007,90
24/05/2021 07:008,65
24/05/2021 08:008,05
24/05/2021 09:008,80
24/05/2021 10:009,70
24/05/2021 11:0012,30
24/05/2021 12:0014,70
24/05/2021 13:0014,25
24/05/2021 14:0014,95
24/05/2021 15:0014,70
24/05/2021 16:0014,80
24/05/2021 17:0014,70
24/05/2021 18:0013,70
24/05/2021 19:0011,35
24/05/2021 20:009,75
24/05/2021 21:009,00
24/05/2021 22:008,20
24/05/2021 23:007,55
25/05/2021 00:006,20
25/05/2021 01:004,65
25/05/2021 02:003,15
25/05/2021 03:002,40
25/05/2021 04:001,65
25/05/2021 05:000,80
25/05/2021 06:000,40
25/05/2021 07:000,40
25/05/2021 08:002,95
25/05/2021 09:006,25
25/05/2021 10:008,25
25/05/2021 11:0010,10
25/05/2021 12:0011,25
25/05/2021 13:0012,75
25/05/2021 14:0013,90
25/05/2021 15:0014,60
25/05/2021 16:0014,20
25/05/2021 17:0013,95
25/05/2021 18:0013,70
25/05/2021 19:0013,75
25/05/2021 20:0012,30
25/05/2021 21:0010,10
25/05/2021 22:008,30
25/05/2021 23:007,00
26/05/2021 00:005,30
26/05/2021 01:004,30
26/05/2021 02:003,50
26/05/2021 03:002,60
26/05/2021 04:002,60
26/05/2021 05:002,35
26/05/2021 06:002,75
26/05/2021 07:003,65
26/05/2021 08:005,50
26/05/2021 09:008,80
26/05/2021 10:0011,40
26/05/2021 11:0014,90
26/05/2021 12:0016,35
26/05/2021 13:0017,75
26/05/2021 14:0019,65
26/05/2021 15:0020,85
26/05/2021 16:0019,30
26/05/2021 17:0015,80
26/05/2021 18:0016,70
26/05/2021 19:0017,10
26/05/2021 20:0015,75
26/05/2021 21:0014,10
26/05/2021 22:0010,80
26/05/2021 23:008,55
27/05/2021 00:007,15
27/05/2021 01:006,55
27/05/2021 02:005,70
27/05/2021 03:005,25
27/05/2021 04:005,85
27/05/2021 05:005,05
27/05/2021 06:004,55
27/05/2021 07:005,15
27/05/2021 08:008,80
27/05/2021 09:0012,85
27/05/2021 10:0016,95
27/05/2021 11:0019,75
27/05/2021 12:0021,50
27/05/2021 13:0022,20
27/05/2021 14:0022,70
27/05/2021 15:0024,20
27/05/2021 16:0024,90
27/05/2021 17:0025,55
27/05/2021 18:0026,10
27/05/2021 19:0025,05
27/05/2021 20:0022,00
27/05/2021 21:0018,60
27/05/2021 22:0017,00
27/05/2021 23:0015,75
28/05/2021 00:0014,45
28/05/2021 01:0013,75
28/05/2021 02:0013,05
28/05/2021 03:0012,45
28/05/2021 04:0012,45
28/05/2021 05:0012,75
28/05/2021 06:0012,35
28/05/2021 07:0012,30
28/05/2021 08:0013,45
28/05/2021 09:0015,60
28/05/2021 10:0018,05
28/05/2021 11:0018,10
28/05/2021 12:0018,40
28/05/2021 13:0018,40
28/05/2021 15:0019,40
28/05/2021 16:0021,10
28/05/2021 18:0021,60
28/05/2021 19:0020,10
28/05/2021 20:0018,80
28/05/2021 21:0017,30
28/05/2021 22:0013,55
28/05/2021 23:0013,40
29/05/2021 00:0013,40
29/05/2021 01:0013,20
29/05/2021 02:0011,30
29/05/2021 03:0010,65
29/05/2021 04:009,25
29/05/2021 05:008,25
29/05/2021 06:007,60
29/05/2021 07:008,50
29/05/2021 08:0011,75
29/05/2021 09:0014,50
29/05/2021 10:0018,35
29/05/2021 11:0020,60
29/05/2021 12:0022,65
29/05/2021 13:0023,85
29/05/2021 14:0024,65
29/05/2021 15:0023,50
29/05/2021 16:0016,10
29/05/2021 17:0017,55
29/05/2021 18:0017,95
29/05/2021 19:0017,70
29/05/2021 20:0016,15
29/05/2021 21:0014,05
29/05/2021 22:0012,70
29/05/2021 23:0011,75
30/05/2021 00:0010,60
30/05/2021 01:0010,30
30/05/2021 02:0010,25
30/05/2021 03:0010,70
30/05/2021 04:0010,20
30/05/2021 05:009,75
30/05/2021 06:009,95
30/05/2021 07:009,75
30/05/2021 08:0010,25
30/05/2021 09:0011,80
30/05/2021 10:0015,65
30/05/2021 11:0017,50
30/05/2021 12:0019,35
30/05/2021 13:0020,20
30/05/2021 14:0021,35
30/05/2021 15:0022,50
30/05/2021 16:0023,05
30/05/2021 17:0023,60
30/05/2021 18:0022,90
30/05/2021 19:0021,05
30/05/2021 20:0019,90
30/05/2021 21:0017,00
30/05/2021 22:0015,35
30/05/2021 23:0014,70
31/05/2021 00:0013,40
31/05/2021 01:0012,60
31/05/2021 02:0012,05
31/05/2021 03:0011,00
31/05/2021 04:009,90
31/05/2021 05:008,95
31/05/2021 06:008,20
31/05/2021 07:008,00
31/05/2021 08:0012,00
31/05/2021 09:0015,65
31/05/2021 10:0018,00
31/05/2021 11:0020,65
31/05/2021 12:0022,95
31/05/2021 13:0025,50
31/05/2021 14:0025,60
31/05/2021 15:0026,55
31/05/2021 16:0026,95
31/05/2021 17:0026,00
31/05/2021 18:0027,65
31/05/2021 19:0027,05
31/05/2021 20:0023,10
31/05/2021 21:0019,55
31/05/2021 22:0017,60
31/05/2021 23:0015,35
01/06/2021 00:0014,60
01/06/2021 01:0014,75
01/06/2021 02:0014,00
01/06/2021 03:0012,60
01/06/2021 04:0012,40
01/06/2021 05:0012,30
01/06/2021 06:0012,15
01/06/2021 07:0012,50
01/06/2021 08:0013,30
01/06/2021 09:0014,40
01/06/2021 10:0015,70
01/06/2021 11:0017,50
01/06/2021 12:0014,00
01/06/2021 13:0012,55
01/06/2021 14:0013,60
01/06/2021 15:0013,90
01/06/2021 16:0018,35
01/06/2021 17:0019,05
01/06/2021 18:0019,35
01/06/2021 19:0015,20
01/06/2021 20:0015,80
01/06/2021 21:0014,65
01/06/2021 22:0012,85
01/06/2021 23:0010,80
02/06/2021 00:009,70
02/06/2021 01:008,80
02/06/2021 02:008,30
02/06/2021 03:007,70
02/06/2021 04:007,60
02/06/2021 05:007,25
02/06/2021 06:007,15
02/06/2021 07:007,95
02/06/2021 08:009,10
02/06/2021 09:0010,70
02/06/2021 10:0011,90
02/06/2021 11:0012,90
02/06/2021 12:0014,85
02/06/2021 13:0015,90
02/06/2021 14:0016,70
02/06/2021 15:0018,90
02/06/2021 16:0019,30
02/06/2021 17:0020,15
02/06/2021 18:0020,35
02/06/2021 19:0021,20
02/06/2021 20:0020,20
02/06/2021 21:0015,95
02/06/2021 22:0012,55
02/06/2021 23:0010,90
03/06/2021 00:0010,05
03/06/2021 01:009,35
03/06/2021 02:008,25
03/06/2021 03:007,55
03/06/2021 04:006,80
03/06/2021 05:006,35
03/06/2021 06:006,10
03/06/2021 07:007,25
03/06/2021 08:009,35
03/06/2021 09:0010,80
03/06/2021 10:0012,80
03/06/2021 11:0014,50
03/06/2021 12:0014,30
03/06/2021 13:0015,15
03/06/2021 14:0015,50
03/06/2021 15:0015,25
03/06/2021 16:0015,75
03/06/2021 17:0015,15
03/06/2021 18:0015,30
03/06/2021 19:0013,75
03/06/2021 20:0012,05
03/06/2021 21:009,60
03/06/2021 22:008,70
03/06/2021 23:008,15
04/06/2021 00:008,10
04/06/2021 01:007,85
04/06/2021 02:007,50
04/06/2021 03:008,50
04/06/2021 04:008,50
04/06/2021 05:008,50
04/06/2021 06:008,55
04/06/2021 07:008,65
04/06/2021 08:009,05
04/06/2021 09:0010,05
04/06/2021 10:0011,00
04/06/2021 11:0012,05
04/06/2021 12:0014,25
04/06/2021 13:0014,95
04/06/2021 14:0015,25
04/06/2021 15:0015,55
04/06/2021 16:0014,95
04/06/2021 17:0015,00
04/06/2021 18:0013,50
04/06/2021 19:0013,40
04/06/2021 20:0012,45
04/06/2021 21:0010,00
04/06/2021 22:008,60
04/06/2021 23:007,55
05/06/2021 00:006,15
05/06/2021 01:005,35
05/06/2021 02:005,80
05/06/2021 03:005,65
05/06/2021 04:005,75
05/06/2021 05:006,80
05/06/2021 06:006,60
05/06/2021 07:006,35
05/06/2021 08:007,05
05/06/2021 09:0010,10
05/06/2021 10:0013,35
05/06/2021 11:0015,75
05/06/2021 12:0017,85
05/06/2021 13:0019,10
05/06/2021 14:0020,95
05/06/2021 15:0021,95
05/06/2021 16:0021,30
05/06/2021 17:0021,30
05/06/2021 18:0021,10
05/06/2021 19:0018,20
05/06/2021 20:0016,30
05/06/2021 21:0014,20
05/06/2021 22:0012,10
05/06/2021 23:0010,85
06/06/2021 00:009,90
06/06/2021 01:008,10
06/06/2021 02:007,50
06/06/2021 03:007,05
06/06/2021 04:007,35
06/06/2021 05:005,80
06/06/2021 06:004,80
06/06/2021 07:005,35
06/06/2021 08:007,45
06/06/2021 09:0011,25
06/06/2021 10:0013,55
06/06/2021 11:0015,60
06/06/2021 12:0017,60
06/06/2021 13:0018,75
06/06/2021 14:0019,15
06/06/2021 15:0019,70
06/06/2021 16:0020,20
06/06/2021 17:0020,05
06/06/2021 18:0018,45
06/06/2021 19:0018,60
06/06/2021 20:0016,15
06/06/2021 21:0013,75
06/06/2021 22:0012,20
06/06/2021 23:0011,15
07/06/2021 00:009,95
07/06/2021 01:008,80
07/06/2021 02:007,60
07/06/2021 03:007,05
07/06/2021 04:007,20
07/06/2021 05:007,20
07/06/2021 06:005,80
07/06/2021 07:005,60
07/06/2021 08:007,50
07/06/2021 09:0011,30
07/06/2021 10:0015,60
07/06/2021 11:0018,55
07/06/2021 12:0020,60
07/06/2021 13:0022,65
07/06/2021 14:0024,10
07/06/2021 15:0025,15
07/06/2021 16:0025,35
07/06/2021 17:0025,60
07/06/2021 18:0024,90
07/06/2021 19:0023,85
07/06/2021 20:0023,05
07/06/2021 21:0019,45
07/06/2021 22:0015,15
07/06/2021 23:0012,55
08/06/2021 00:0011,00
08/06/2021 01:0010,30
08/06/2021 02:009,10
08/06/2021 03:008,65
08/06/2021 04:008,00
08/06/2021 05:007,55
08/06/2021 06:007,40
08/06/2021 07:007,85
08/06/2021 08:0011,50
08/06/2021 09:0015,95
08/06/2021 10:0020,15
08/06/2021 11:0022,25
08/06/2021 12:0024,25
08/06/2021 13:0025,85
08/06/2021 14:0026,90
08/06/2021 15:0028,00
08/06/2021 16:0028,20
08/06/2021 17:0027,50
08/06/2021 18:0024,40
08/06/2021 19:0021,80
08/06/2021 20:0017,65
08/06/2021 21:0015,05
08/06/2021 22:0013,20
08/06/2021 23:0012,10
09/06/2021 00:0011,05
09/06/2021 01:009,70
09/06/2021 02:008,75
09/06/2021 03:008,00
09/06/2021 04:007,70
09/06/2021 05:007,20
09/06/2021 06:006,70
09/06/2021 07:007,10
09/06/2021 08:009,60
09/06/2021 09:0013,70
09/06/2021 10:0016,65
09/06/2021 11:0018,75
09/06/2021 12:0020,25
09/06/2021 13:0021,90
09/06/2021 14:0022,20
09/06/2021 15:0023,25
09/06/2021 16:0023,10
09/06/2021 17:0023,35
09/06/2021 18:0021,80
09/06/2021 19:0020,00
09/06/2021 20:0017,60
09/06/2021 21:0014,75
09/06/2021 22:0013,55
09/06/2021 23:0011,40
10/06/2021 00:0010,05
10/06/2021 01:009,10
10/06/2021 02:008,50
10/06/2021 03:007,60
10/06/2021 04:006,85
10/06/2021 05:006,45
10/06/2021 06:006,55
10/06/2021 07:007,40
10/06/2021 08:0010,30
10/06/2021 09:0014,35
10/06/2021 10:0018,45
10/06/2021 11:0019,85
10/06/2021 12:0022,00
10/06/2021 13:0023,15
10/06/2021 14:0024,35
10/06/2021 15:0024,85
10/06/2021 16:0025,20
10/06/2021 17:0025,70
10/06/2021 18:0024,35
10/06/2021 19:0022,95
10/06/2021 20:0019,25
10/06/2021 21:0017,40
10/06/2021 22:0014,75
10/06/2021 23:0012,90
11/06/2021 00:0011,60
11/06/2021 01:0010,20
11/06/2021 02:009,70
11/06/2021 03:0012,70
11/06/2021 04:0010,80
11/06/2021 05:009,60
11/06/2021 06:008,75
11/06/2021 07:009,30
11/06/2021 08:0013,30
11/06/2021 09:0017,20
11/06/2021 10:0019,90
11/06/2021 11:0021,55
11/06/2021 12:0022,55
11/06/2021 13:0023,10
11/06/2021 14:0023,25
11/06/2021 15:0023,30
11/06/2021 16:0023,05
11/06/2021 17:0022,80
11/06/2021 18:0021,65
11/06/2021 19:0021,15
11/06/2021 20:0020,50
11/06/2021 21:0017,75
11/06/2021 22:0015,10
11/06/2021 23:0013,00
12/06/2021 00:0011,70
12/06/2021 01:0010,70
12/06/2021 02:0010,90
12/06/2021 03:0010,55
12/06/2021 04:0010,30
12/06/2021 05:0011,05
12/06/2021 06:0011,25
12/06/2021 07:0011,45
12/06/2021 08:0014,50
12/06/2021 09:0017,80
12/06/2021 10:0019,10
12/06/2021 11:0020,50
12/06/2021 12:0022,50
12/06/2021 13:0023,55
12/06/2021 14:0023,65
12/06/2021 15:0024,85
12/06/2021 16:0025,05
12/06/2021 17:0025,55
12/06/2021 18:0025,80
12/06/2021 19:0025,55
12/06/2021 20:0024,75
12/06/2021 21:0021,65
12/06/2021 22:0017,70
12/06/2021 23:0015,45
13/06/2021 00:0014,25
13/06/2021 01:0013,10
13/06/2021 02:0012,55
13/06/2021 03:0011,90
13/06/2021 04:0011,70
13/06/2021 05:0011,50
13/06/2021 06:0011,55
13/06/2021 07:0012,65
13/06/2021 08:0015,25
13/06/2021 09:0019,35
13/06/2021 10:0021,85
13/06/2021 11:0023,40
13/06/2021 12:0025,30
13/06/2021 13:0026,90
13/06/2021 14:0027,45
13/06/2021 15:0028,20
13/06/2021 16:0029,15
13/06/2021 17:0028,95
13/06/2021 18:0030,00
13/06/2021 19:0029,20
13/06/2021 20:0027,60
13/06/2021 21:0023,25
13/06/2021 22:0023,10
13/06/2021 23:0021,15
14/06/2021 00:0016,70
14/06/2021 01:0015,70
14/06/2021 02:0016,55
14/06/2021 03:0015,75
14/06/2021 04:0015,10
14/06/2021 05:0014,55
14/06/2021 06:0013,80
14/06/2021 07:0013,10
14/06/2021 08:0014,55
14/06/2021 09:0015,40
14/06/2021 10:0015,55
14/06/2021 11:0016,50
14/06/2021 12:0017,90
14/06/2021 13:0020,05
14/06/2021 14:0021,85
14/06/2021 15:0024,45
14/06/2021 16:0026,30
14/06/2021 17:0026,60
14/06/2021 18:0025,55
14/06/2021 19:0023,35
14/06/2021 20:0021,80
14/06/2021 21:0020,50
14/06/2021 22:0017,10
14/06/2021 23:0017,95
15/06/2021 00:0015,70
15/06/2021 01:0015,05
15/06/2021 02:0015,35
15/06/2021 03:0014,10
15/06/2021 04:0013,35
15/06/2021 05:0011,85
15/06/2021 06:0010,85
15/06/2021 07:0011,05
15/06/2021 08:0013,30
15/06/2021 09:0017,45
15/06/2021 10:0021,85
15/06/2021 11:0023,15
15/06/2021 12:0024,75
15/06/2021 13:0025,75
15/06/2021 14:0026,35
15/06/2021 15:0026,95
15/06/2021 16:0027,75
15/06/2021 17:0028,00
15/06/2021 18:0028,25
15/06/2021 19:0025,75
15/06/2021 20:0018,25
15/06/2021 21:0014,90
15/06/2021 22:0015,40
15/06/2021 23:0015,30
16/06/2021 00:0015,00
16/06/2021 01:0014,70
16/06/2021 02:0014,30
16/06/2021 03:0013,95
16/06/2021 04:0014,00
16/06/2021 05:0013,60
16/06/2021 06:0013,05
16/06/2021 07:0013,40
16/06/2021 08:0013,70
16/06/2021 09:0014,15
16/06/2021 10:0015,55
16/06/2021 11:0017,15
16/06/2021 12:0019,00
16/06/2021 13:0020,60
16/06/2021 14:0023,10
16/06/2021 15:0023,35
16/06/2021 16:0024,60
16/06/2021 17:0023,20
16/06/2021 18:0019,15
16/06/2021 19:0015,20
16/06/2021 20:0014,85
16/06/2021 21:0014,75
16/06/2021 22:0014,15
16/06/2021 23:0012,75
17/06/2021 00:0012,25
17/06/2021 01:0011,60
17/06/2021 02:0011,50
17/06/2021 03:0011,40
17/06/2021 04:0011,10
17/06/2021 05:0011,00
17/06/2021 06:0010,55
17/06/2021 07:0010,90
17/06/2021 08:0012,05</